Time,TemperatureF,DewpointF,PressureIn,WindDirection,WindDirectionDegrees,WindSpeedMPH,WindSpeedGustMPH,Humidity,HourlyPrecipIn,Conditions,Clouds,dailyrainin,SolarRadiationWatts/m^2,SoftwareType,DateUTC
2013-05-04 00:00:00,39.6,37.4,30.12,North,350,0.0,0.0,92,0.00,,,0.00,0.0,meteobridge,2013-05-04 05:00:00,
2013-05-04 00:01:00,39.6,37.4,30.12,North,350,0.0,0.0,92,0.00,,,0.00,0.0,meteobridge,2013-05-04 05:01:00,
2013-05-04 00:02:00,39.6,37.4,30.12,North,350,0.0,0.0,92,0.00,,,0.00,0.0,meteobridge,2013-05-04 05:02:00,
2013-05-04 00:04:00,39.6,37.4,30.11,North,350,0.0,0.0,92,0.00,,,0.00,0.0,meteobridge,2013-05-04 05:04:00,
2013-05-04 00:06:00,39.6,37.4,30.11,North,350,0.0,0.0,92,0.00,,,0.00,0.0,meteobridge,2013-05-04 05:06:00,
2013-05-04 00:07:00,39.6,37.4,30.11,North,350,0.0,0.0,92,0.00,,,0.00,0.0,meteobridge,2013-05-04 05:07:00,
2013-05-04 00:08:00,39.6,37.4,30.11,North,350,0.0,0.0,92,0.00,,,0.00,0.0,meteobridge,2013-05-04 05:08:00,
2013-05-04 00:09:00,39.6,37.4,30.11,North,350,0.0,0.0,92,0.00,,,0.00,0.0,meteobridge,2013-05-04 05:09:00,
2013-05-04 00:11:00,39.4,37.2,30.11,North,350,0.0,0.0,92,0.00,,,0.00,0.0,meteobridge,2013-05-04 05:11:00,
2013-05-04 00:12:00,39.4,37.2,30.11,North,350,0.0,0.0,92,0.00,,,0.00,0.0,meteobridge,2013-05-04 05:12:00,
2013-05-04 00:14:00,39.4,37.6,30.11,North,350,0.0,0.0,93,0.00,,,0.00,0.0,meteobridge,2013-05-04 05:14:00,
2013-05-04 00:16:00,39.4,37.6,30.11,North,350,0.0,0.0,93,0.00,,,0.00,0.0,meteobridge,2013-05-04 05:16:00,
2013-05-04 00:17:00,39.4,37.6,30.11,North,350,0.0,0.0,93,0.00,,,0.00,0.0,meteobridge,2013-05-04 05:17:00,
2013-05-04 00:19:00,39.4,37.6,30.11,North,350,0.0,0.0,93,0.00,,,0.00,0.0,meteobridge,2013-05-04 05:19:00,
2013-05-04 00:23:00,39.0,37.2,30.11,North,350,0.0,0.0,93,0.00,,,0.00,0.0,meteobridge,2013-05-04 05:23:00,
2013-05-04 00:24:00,39.0,36.9,30.11,North,350,0.0,0.0,92,0.00,,,0.00,0.0,meteobridge,2013-05-04 05:24:00,
2013-05-04 00:25:00,39.0,37.2,30.11,North,350,0.0,0.0,93,0.00,,,0.00,0.0,meteobridge,2013-05-04 05:25:00,
2013-05-04 00:29:00,39.0,37.2,30.10,North,350,0.0,0.0,93,0.00,,,0.00,0.0,meteobridge,2013-05-04 05:29:00,
2013-05-04 00:30:00,39.0,37.2,30.10,North,350,0.0,0.0,93,0.00,,,0.00,0.0,meteobridge,2013-05-04 05:30:00,
2013-05-04 00:31:00,39.0,37.2,30.10,North,350,0.0,0.0,93,0.00,,,0.00,0.0,meteobridge,2013-05-04 05:31:00,
2013-05-04 00:35:00,38.8,37.0,30.10,North,350,0.0,0.0,93,0.00,,,0.00,0.0,meteobridge,2013-05-04 05:35:00,
2013-05-04 00:36:00,38.8,37.0,30.10,North,350,0.0,0.0,93,0.00,,,0.00,0.0,meteobridge,2013-05-04 05:36:00,
2013-05-04 00:37:00,38.8,37.0,30.10,North,350,0.0,0.0,93,0.00,,,0.00,0.0,meteobridge,2013-05-04 05:37:00,
2013-05-04 00:42:00,38.5,36.7,30.10,North,350,0.0,0.0,93,0.00,,,0.00,0.0,meteobridge,2013-05-04 05:42:00,
2013-05-04 00:43:00,38.5,36.7,30.10,North,350,0.0,0.0,93,0.00,,,0.00,0.0,meteobridge,2013-05-04 05:43:00,
2013-05-04 00:44:00,38.5,36.7,30.10,North,350,0.0,0.0,93,0.00,,,0.00,0.0,meteobridge,2013-05-04 05:44:00,
2013-05-04 00:47:00,38.5,36.7,30.10,North,350,0.0,0.0,93,0.00,,,0.00,0.0,meteobridge,2013-05-04 05:47:00,
2013-05-04 00:48:00,38.5,36.7,30.10,North,350,0.0,0.0,93,0.00,,,0.00,0.0,meteobridge,2013-05-04 05:48:00,
2013-05-04 00:49:00,38.5,36.7,30.10,North,350,0.0,0.0,93,0.00,,,0.00,0.0,meteobridge,2013-05-04 05:49:00,
2013-05-04 00:52:00,38.5,36.7,30.09,North,350,0.0,0.0,93,0.00,,,0.00,0.0,meteobridge,2013-05-04 05:52:00,
2013-05-04 00:54:00,38.5,36.7,30.09,North,350,0.0,0.0,93,0.00,,,0.00,0.0,meteobridge,2013-05-04 05:54:00,
2013-05-04 00:55:00,38.5,36.7,30.09,North,350,0.0,0.0,93,0.00,,,0.00,0.0,meteobridge,2013-05-04 05:55:00,
2013-05-04 00:57:00,38.5,36.7,30.09,North,350,0.0,0.0,93,0.00,,,0.00,0.0,meteobridge,2013-05-04 05:57:00,
2013-05-04 00:59:00,38.5,36.7,30.09,North,350,0.0,0.0,93,0.00,,,0.00,0.0,meteobridge,2013-05-04 05:59:00,
2013-05-04 01:00:00,38.5,36.7,30.09,North,350,0.0,0.0,93,0.00,,,0.00,0.0,meteobridge,2013-05-04 06:00:00,
2013-05-04 01:01:00,38.3,36.5,30.09,North,350,0.0,0.0,93,0.00,,,0.00,0.0,meteobridge,2013-05-04 06:01:00,
2013-05-04 01:02:00,38.1,36.3,30.09,North,350,0.0,0.0,93,0.00,,,0.00,0.0,meteobridge,2013-05-04 06:02:00,
2013-05-04 01:05:00,38.1,36.3,30.09,North,350,0.0,0.0,93,0.00,,,0.00,0.0,meteobridge,2013-05-04 06:05:00,
2013-05-04 01:07:00,38.1,36.3,30.08,North,350,0.0,0.0,93,0.00,,,0.00,0.0,meteobridge,2013-05-04 06:07:00,
2013-05-04 01:10:00,38.1,36.3,30.09,North,350,0.0,0.0,93,0.00,,,0.00,0.0,meteobridge,2013-05-04 06:10:00,
2013-05-04 01:11:00,38.1,36.3,30.09,North,350,0.0,0.0,93,0.00,,,0.00,0.0,meteobridge,2013-05-04 06:11:00,
2013-05-04 01:12:00,38.1,36.3,30.09,North,350,0.0,0.0,93,0.00,,,0.00,0.0,meteobridge,2013-05-04 06:12:00,
2013-05-04 01:16:00,37.9,36.1,30.08,North,350,0.0,0.0,93,0.00,,,0.00,0.0,meteobridge,2013-05-04 06:16:00,
2013-05-04 01:17:00,37.8,36.0,30.08,North,350,0.0,0.0,93,0.00,,,0.00,0.0,meteobridge,2013-05-04 06:17:00,
2013-05-04 01:19:00,37.8,36.0,30.08,North,350,0.0,0.0,93,0.00,,,0.00,0.0,meteobridge,2013-05-04 06:19:00,
2013-05-04 01:22:00,37.6,35.8,30.08,North,350,0.0,0.0,93,0.00,,,0.00,0.0,meteobridge,2013-05-04 06:22:00,
2013-05-04 01:23:00,37.6,35.8,30.08,North,350,0.0,0.0,93,0.00,,,0.00,0.0,meteobridge,2013-05-04 06:23:00,
2013-05-04 01:25:00,37.4,35.6,30.08,North,350,0.0,0.0,93,0.00,,,0.00,0.0,meteobridge,2013-05-04 06:25:00,
2013-05-04 01:27:00,37.2,35.6,30.08,North,350,0.0,0.0,94,0.00,,,0.00,0.0,meteobridge,2013-05-04 06:27:00,
2013-05-04 01:28:00,37.2,35.6,30.08,North,350,0.0,0.0,94,0.00,,,0.00,0.0,meteobridge,2013-05-04 06:28:00,
2013-05-04 01:30:00,37.2,35.6,30.07,North,350,0.0,0.0,94,0.00,,,0.00,0.0,meteobridge,2013-05-04 06:30:00,
2013-05-04 01:31:00,37.2,35.6,30.07,North,350,0.0,0.0,94,0.00,,,0.00,0.0,meteobridge,2013-05-04 06:31:00,
2013-05-04 01:33:00,37.2,35.6,30.07,North,350,0.0,0.0,94,0.00,,,0.00,0.0,meteobridge,2013-05-04 06:33:00,
2013-05-04 01:34:00,37.2,35.6,30.07,North,350,0.0,0.0,94,0.00,,,0.00,0.0,meteobridge,2013-05-04 06:34:00,
2013-05-04 01:35:00,37.2,35.6,30.07,North,350,0.0,0.0,94,0.00,,,0.00,0.0,meteobridge,2013-05-04 06:35:00,
2013-05-04 01:36:00,37.2,35.6,30.07,North,350,0.0,0.0,94,0.00,,,0.00,0.0,meteobridge,2013-05-04 06:36:00,
2013-05-04 01:37:00,37.2,35.6,30.07,North,350,0.0,0.0,94,0.00,,,0.00,0.0,meteobridge,2013-05-04 06:37:00,
2013-05-04 01:39:00,37.2,35.6,30.07,North,350,0.0,0.0,94,0.00,,,0.00,0.0,meteobridge,2013-05-04 06:39:00,
2013-05-04 01:40:00,37.0,35.2,30.07,North,350,0.0,0.0,93,0.00,,,0.00,0.0,meteobridge,2013-05-04 06:40:00,
2013-05-04 01:41:00,37.0,35.2,30.07,North,350,0.0,0.0,93,0.00,,,0.00,0.0,meteobridge,2013-05-04 06:41:00,
2013-05-04 01:42:00,37.0,35.2,30.07,North,350,0.0,0.0,93,0.00,,,0.00,0.0,meteobridge,2013-05-04 06:42:00,
2013-05-04 01:45:00,36.9,35.1,30.07,North,350,0.0,0.0,93,0.00,,,0.00,0.0,meteobridge,2013-05-04 06:45:00,
2013-05-04 01:46:00,36.9,35.1,30.07,North,350,0.0,0.0,93,0.00,,,0.00,0.0,meteobridge,2013-05-04 06:46:00,
2013-05-04 01:47:00,36.9,35.2,30.07,North,350,0.0,0.0,94,0.00,,,0.00,0.0,meteobridge,2013-05-04 06:47:00,
2013-05-04 01:51:00,36.9,35.2,30.07,North,350,0.0,0.0,94,0.00,,,0.00,0.0,meteobridge,2013-05-04 06:51:00,
2013-05-04 01:52:00,36.9,35.2,30.06,North,350,0.0,0.0,94,0.00,,,0.00,0.0,meteobridge,2013-05-04 06:52:00,
2013-05-04 01:53:00,36.7,35.1,30.06,North,350,0.0,0.0,94,0.00,,,0.00,0.0,meteobridge,2013-05-04 06:53:00,
2013-05-04 01:56:00,36.9,35.2,30.06,North,350,0.0,0.0,94,0.00,,,0.00,0.0,meteobridge,2013-05-04 06:56:00,
2013-05-04 01:58:00,36.9,35.2,30.06,North,350,0.0,0.0,94,0.00,,,0.00,0.0,meteobridge,2013-05-04 06:58:00,
2013-05-04 01:59:00,36.9,35.2,30.06,North,350,0.0,0.0,94,0.00,,,0.00,0.0,meteobridge,2013-05-04 06:59:00,
2013-05-04 02:00:00,36.9,35.2,30.06,North,350,0.0,0.0,94,0.00,,,0.00,0.0,meteobridge,2013-05-04 07:00:00,
2013-05-04 02:02:00,36.9,35.2,30.06,North,350,0.0,0.0,94,0.00,,,0.00,0.0,meteobridge,2013-05-04 07:02:00,
2013-05-04 02:04:00,36.9,35.2,30.06,North,350,0.0,0.0,94,0.00,,,0.00,0.0,meteobridge,2013-05-04 07:04:00,
2013-05-04 02:05:00,36.9,35.2,30.06,North,350,0.0,0.0,94,0.00,,,0.00,0.0,meteobridge,2013-05-04 07:05:00,
2013-05-04 02:07:00,37.0,35.4,30.06,North,350,0.0,0.0,94,0.00,,,0.00,0.0,meteobridge,2013-05-04 07:07:00,
2013-05-04 02:08:00,37.0,35.4,30.06,North,350,0.0,0.0,94,0.00,,,0.00,0.0,meteobridge,2013-05-04 07:08:00,
2013-05-04 02:10:00,36.9,35.2,30.06,North,350,0.0,0.0,94,0.00,,,0.00,0.0,meteobridge,2013-05-04 07:10:00,
2013-05-04 02:11:00,36.9,35.2,30.06,North,350,0.0,0.0,94,0.00,,,0.00,0.0,meteobridge,2013-05-04 07:11:00,
2013-05-04 02:12:00,36.7,35.1,30.06,North,350,0.0,0.0,94,0.00,,,0.00,0.0,meteobridge,2013-05-04 07:12:00,
2013-05-04 02:13:00,36.7,35.1,30.06,North,350,0.0,0.0,94,0.00,,,0.00,0.0,meteobridge,2013-05-04 07:13:00,
2013-05-04 02:15:00,36.5,34.9,30.06,North,350,0.0,0.0,94,0.00,,,0.00,0.0,meteobridge,2013-05-04 07:15:00,
2013-05-04 02:17:00,36.3,34.7,30.06,North,350,0.0,0.0,94,0.00,,,0.00,0.0,meteobridge,2013-05-04 07:17:00,
2013-05-04 02:18:00,36.3,34.7,30.06,North,350,0.0,0.0,94,0.00,,,0.00,0.0,meteobridge,2013-05-04 07:18:00,
2013-05-04 02:22:00,36.1,34.5,30.06,North,350,0.0,0.0,94,0.00,,,0.00,0.0,meteobridge,2013-05-04 07:22:00,
2013-05-04 02:23:00,36.0,34.3,30.06,North,350,0.0,0.0,94,0.00,,,0.00,0.0,meteobridge,2013-05-04 07:23:00,
2013-05-04 02:25:00,36.0,34.3,30.06,North,350,0.0,0.0,94,0.00,,,0.00,0.0,meteobridge,2013-05-04 07:25:00,
2013-05-04 02:27:00,35.8,34.2,30.06,North,350,0.0,0.0,94,0.00,,,0.00,0.0,meteobridge,2013-05-04 07:27:00,
2013-05-04 02:28:00,35.8,34.2,30.06,North,350,0.0,0.0,94,0.00,,,0.00,0.0,meteobridge,2013-05-04 07:28:00,
2013-05-04 02:29:00,35.8,34.2,30.06,North,350,0.0,0.0,94,0.00,,,0.00,0.0,meteobridge,2013-05-04 07:29:00,
2013-05-04 02:30:00,35.8,34.2,30.06,North,350,0.0,0.0,94,0.00,,,0.00,0.0,meteobridge,2013-05-04 07:30:00,
2013-05-04 02:32:00,35.8,34.2,30.06,North,350,0.0,0.0,94,0.00,,,0.00,0.0,meteobridge,2013-05-04 07:32:00,
2013-05-04 02:34:00,35.8,34.2,30.06,North,350,0.0,0.0,94,0.00,,,0.00,0.0,meteobridge,2013-05-04 07:34:00,
2013-05-04 02:36:00,35.8,34.2,30.06,North,350,0.0,0.0,94,0.00,,,0.00,0.0,meteobridge,2013-05-04 07:36:00,
2013-05-04 02:37:00,35.8,34.2,30.06,North,350,0.0,0.0,94,0.00,,,0.00,0.0,meteobridge,2013-05-04 07:37:00,
2013-05-04 02:39:00,35.8,34.2,30.06,North,350,0.0,0.0,94,0.00,,,0.00,0.0,meteobridge,2013-05-04 07:39:00,
2013-05-04 02:40:00,35.8,34.2,30.06,North,350,0.0,0.0,94,0.00,,,0.00,0.0,meteobridge,2013-05-04 07:40:00,
2013-05-04 02:41:00,35.8,34.2,30.06,North,350,0.0,0.0,94,0.00,,,0.00,0.0,meteobridge,2013-05-04 07:41:00,
2013-05-04 02:42:00,35.8,34.2,30.06,North,350,0.0,0.0,94,0.00,,,0.00,0.0,meteobridge,2013-05-04 07:42:00,
2013-05-04 02:45:00,35.6,34.0,30.06,North,350,0.0,0.0,94,0.00,,,0.00,0.0,meteobridge,2013-05-04 07:45:00,
2013-05-04 02:46:00,35.6,34.0,30.06,North,350,0.0,0.0,94,0.00,,,0.00,0.0,meteobridge,2013-05-04 07:46:00,
2013-05-04 02:47:00,35.6,34.0,30.06,North,350,0.0,0.0,94,0.00,,,0.00,0.0,meteobridge,2013-05-04 07:47:00,
2013-05-04 02:48:00,35.4,33.8,30.06,North,350,0.0,0.0,94,0.00,,,0.00,0.0,meteobridge,2013-05-04 07:48:00,
2013-05-04 02:52:00,35.6,34.0,30.06,North,350,0.0,0.0,94,0.00,,,0.00,0.0,meteobridge,2013-05-04 07:52:00,
2013-05-04 02:53:00,35.6,34.0,30.06,North,350,0.0,0.0,94,0.00,,,0.00,0.0,meteobridge,2013-05-04 07:53:00,
2013-05-04 02:54:00,35.6,34.0,30.06,North,350,0.0,0.0,94,0.00,,,0.00,0.0,meteobridge,2013-05-04 07:54:00,
2013-05-04 02:55:00,35.6,34.0,30.06,North,350,0.0,0.0,94,0.00,,,0.00,0.0,meteobridge,2013-05-04 07:55:00,
2013-05-04 02:57:00,35.6,34.0,30.06,North,350,0.0,0.0,94,0.00,,,0.00,0.0,meteobridge,2013-05-04 07:57:00,
2013-05-04 02:59:00,35.6,34.0,30.06,North,350,0.0,0.0,94,0.00,,,0.00,0.0,meteobridge,2013-05-04 07:59:00,
2013-05-04 03:00:00,35.6,34.0,30.06,North,350,0.0,0.0,94,0.00,,,0.00,0.0,meteobridge,2013-05-04 08:00:00,
2013-05-04 03:01:00,35.6,34.0,30.06,North,350,0.0,0.0,94,0.00,,,0.00,0.0,meteobridge,2013-05-04 08:01:00,
2013-05-04 03:02:00,35.6,34.3,30.05,North,350,0.0,0.0,95,0.00,,,0.00,0.0,meteobridge,2013-05-04 08:02:00,
2013-05-04 03:05:00,35.6,34.0,30.05,North,350,0.0,0.0,94,0.00,,,0.00,0.0,meteobridge,2013-05-04 08:05:00,
2013-05-04 03:06:00,35.6,34.3,30.05,North,350,0.0,0.0,95,0.00,,,0.00,0.0,meteobridge,2013-05-04 08:06:00,
2013-05-04 03:07:00,35.8,34.5,30.05,North,350,0.0,0.0,95,0.00,,,0.00,0.0,meteobridge,2013-05-04 08:07:00,
2013-05-04 03:09:00,35.8,34.5,30.05,North,350,0.0,0.0,95,0.00,,,0.00,0.0,meteobridge,2013-05-04 08:09:00,
2013-05-04 03:11:00,35.8,34.5,30.05,North,350,0.0,0.0,95,0.00,,,0.00,0.0,meteobridge,2013-05-04 08:11:00,
2013-05-04 03:12:00,35.8,34.5,30.05,North,350,0.0,0.0,95,0.00,,,0.00,0.0,meteobridge,2013-05-04 08:12:00,
2013-05-04 03:13:00,35.8,34.5,30.05,North,350,0.0,0.0,95,0.00,,,0.00,0.0,meteobridge,2013-05-04 08:13:00,
2013-05-04 03:14:00,35.6,34.3,30.05,North,350,0.0,0.0,95,0.00,,,0.00,0.0,meteobridge,2013-05-04 08:14:00,
2013-05-04 03:17:00,35.6,34.3,30.05,North,350,0.0,0.0,95,0.00,,,0.00,0.0,meteobridge,2013-05-04 08:17:00,
2013-05-04 03:18:00,35.8,34.5,30.05,North,350,0.0,0.0,95,0.00,,,0.00,0.0,meteobridge,2013-05-04 08:18:00,
2013-05-04 03:19:00,35.8,34.5,30.05,North,350,0.0,0.0,95,0.00,,,0.00,0.0,meteobridge,2013-05-04 08:19:00,
2013-05-04 03:21:00,35.8,34.5,30.05,North,350,0.0,0.0,95,0.00,,,0.00,0.0,meteobridge,2013-05-04 08:21:00,
2013-05-04 03:22:00,35.8,34.5,30.05,North,350,0.0,0.0,95,0.00,,,0.00,0.0,meteobridge,2013-05-04 08:22:00,
2013-05-04 03:24:00,35.8,34.5,30.05,North,350,0.0,0.0,95,0.00,,,0.00,0.0,meteobridge,2013-05-04 08:24:00,
2013-05-04 03:25:00,35.8,34.5,30.05,North,350,0.0,0.0,95,0.00,,,0.00,0.0,meteobridge,2013-05-04 08:25:00,
2013-05-04 03:26:00,35.8,34.5,30.05,North,350,0.0,0.0,95,0.00,,,0.00,0.0,meteobridge,2013-05-04 08:26:00,
2013-05-04 03:27:00,35.8,34.5,30.05,North,350,0.0,0.0,95,0.00,,,0.00,0.0,meteobridge,2013-05-04 08:27:00,
2013-05-04 03:30:00,35.4,34.2,30.05,North,350,0.0,0.0,95,0.00,,,0.00,0.0,meteobridge,2013-05-04 08:30:00,
2013-05-04 03:32:00,35.4,34.2,30.05,North,350,0.0,0.0,95,0.00,,,0.00,0.0,meteobridge,2013-05-04 08:32:00,
2013-05-04 03:34:00,35.4,34.2,30.05,North,350,0.0,0.0,95,0.00,,,0.00,0.0,meteobridge,2013-05-04 08:34:00,
2013-05-04 03:35:00,35.4,34.2,30.05,North,350,0.0,0.0,95,0.00,,,0.00,0.0,meteobridge,2013-05-04 08:35:00,
2013-05-04 03:37:00,35.2,33.6,30.05,North,350,0.0,0.0,94,0.00,,,0.00,0.0,meteobridge,2013-05-04 08:37:00,
2013-05-04 03:38:00,35.2,33.6,30.05,North,350,0.0,0.0,94,0.00,,,0.00,0.0,meteobridge,2013-05-04 08:38:00,
2013-05-04 03:39:00,35.2,34.0,30.05,North,350,0.0,0.0,95,0.00,,,0.00,0.0,meteobridge,2013-05-04 08:39:00,
2013-05-04 03:40:00,35.2,34.0,30.05,North,350,0.0,0.0,95,0.00,,,0.00,0.0,meteobridge,2013-05-04 08:40:00,
2013-05-04 03:44:00,35.2,34.0,30.04,North,350,0.0,0.0,95,0.00,,,0.00,0.0,meteobridge,2013-05-04 08:44:00,
2013-05-04 03:45:00,35.1,33.8,30.05,North,350,0.0,0.0,95,0.00,,,0.00,0.0,meteobridge,2013-05-04 08:45:00,
2013-05-04 03:46:00,35.2,34.0,30.05,North,350,0.0,0.0,95,0.00,,,0.00,0.0,meteobridge,2013-05-04 08:46:00,
2013-05-04 03:49:00,35.2,34.0,30.05,North,350,0.0,0.0,95,0.00,,,0.00,0.0,meteobridge,2013-05-04 08:49:00,
2013-05-04 03:51:00,35.2,34.0,30.05,North,350,0.0,0.0,95,0.00,,,0.00,0.0,meteobridge,2013-05-04 08:51:00,
2013-05-04 03:52:00,35.2,34.0,30.05,North,350,0.0,0.0,95,0.00,,,0.00,0.0,meteobridge,2013-05-04 08:52:00,
2013-05-04 03:54:00,35.1,33.8,30.05,North,350,0.0,0.0,95,0.00,,,0.00,0.0,meteobridge,2013-05-04 08:54:00,
2013-05-04 03:57:00,34.9,33.6,30.05,North,350,0.0,0.0,95,0.00,,,0.00,0.0,meteobridge,2013-05-04 08:57:00,
2013-05-04 03:58:00,34.9,33.6,30.05,North,350,0.0,0.0,95,0.00,,,0.00,0.0,meteobridge,2013-05-04 08:58:00,
2013-05-04 03:59:00,34.9,33.6,30.05,North,350,0.0,0.0,95,0.00,,,0.00,0.0,meteobridge,2013-05-04 08:59:00,
2013-05-04 04:01:00,34.9,33.6,30.05,North,350,0.0,0.0,95,0.00,,,0.00,0.0,meteobridge,2013-05-04 09:01:00,
2013-05-04 04:03:00,34.9,33.6,30.05,North,350,0.0,0.0,95,0.00,,,0.00,0.0,meteobridge,2013-05-04 09:03:00,
2013-05-04 04:04:00,34.9,33.6,30.05,North,350,0.0,0.0,95,0.00,,,0.00,0.0,meteobridge,2013-05-04 09:04:00,
2013-05-04 04:05:00,34.9,33.6,30.05,North,350,0.0,0.0,95,0.00,,,0.00,0.0,meteobridge,2013-05-04 09:05:00,
2013-05-04 04:07:00,34.7,33.4,30.05,North,350,0.0,0.0,95,0.00,,,0.00,0.0,meteobridge,2013-05-04 09:07:00,
2013-05-04 04:09:00,34.7,33.4,30.04,North,350,0.0,0.0,95,0.00,,,0.00,0.0,meteobridge,2013-05-04 09:09:00,
2013-05-04 04:11:00,34.7,33.4,30.05,North,350,0.0,0.0,95,0.00,,,0.00,0.0,meteobridge,2013-05-04 09:11:00,
2013-05-04 04:13:00,34.5,33.3,30.05,North,350,0.0,0.0,95,0.00,,,0.00,0.0,meteobridge,2013-05-04 09:13:00,
2013-05-04 04:14:00,34.5,33.3,30.04,North,350,0.0,0.0,95,0.00,,,0.00,0.0,meteobridge,2013-05-04 09:14:00,
2013-05-04 04:17:00,34.5,33.3,30.04,North,350,0.0,0.0,95,0.00,,,0.00,0.0,meteobridge,2013-05-04 09:17:00,
2013-05-04 04:20:00,34.5,33.3,30.04,North,350,0.0,0.0,95,0.00,,,0.00,0.0,meteobridge,2013-05-04 09:20:00,
2013-05-04 04:22:00,34.3,33.1,30.04,North,350,0.0,0.0,95,0.00,,,0.00,0.0,meteobridge,2013-05-04 09:22:00,
2013-05-04 04:23:00,34.5,33.3,30.04,North,350,0.0,0.0,95,0.00,,,0.00,0.0,meteobridge,2013-05-04 09:23:00,
2013-05-04 04:26:00,34.5,33.3,30.04,North,350,0.0,0.0,95,0.00,,,0.00,0.0,meteobridge,2013-05-04 09:26:00,
2013-05-04 04:27:00,34.5,33.3,30.04,North,350,0.0,0.0,95,0.00,,,0.00,0.0,meteobridge,2013-05-04 09:27:00,
2013-05-04 04:28:00,34.5,33.3,30.04,North,350,0.0,0.0,95,0.00,,,0.00,0.0,meteobridge,2013-05-04 09:28:00,
2013-05-04 04:31:00,34.3,33.1,30.04,North,350,0.0,0.0,95,0.00,,,0.00,0.0,meteobridge,2013-05-04 09:31:00,
2013-05-04 04:32:00,34.3,33.1,30.04,North,350,0.0,0.0,95,0.00,,,0.00,0.0,meteobridge,2013-05-04 09:32:00,
2013-05-04 04:33:00,34.3,33.1,30.04,North,350,0.0,0.0,95,0.00,,,0.00,0.0,meteobridge,2013-05-04 09:33:00,
2013-05-04 04:36:00,34.3,33.1,30.04,North,350,0.0,0.0,95,0.00,,,0.00,0.0,meteobridge,2013-05-04 09:36:00,
2013-05-04 04:37:00,34.3,33.1,30.04,North,350,0.0,0.0,95,0.00,,,0.00,0.0,meteobridge,2013-05-04 09:37:00,
2013-05-04 04:39:00,34.3,33.1,30.04,North,350,0.0,0.0,95,0.00,,,0.00,0.0,meteobridge,2013-05-04 09:39:00,
2013-05-04 04:42:00,34.5,33.3,30.04,North,350,0.0,0.0,95,0.00,,,0.00,0.0,meteobridge,2013-05-04 09:42:00,
2013-05-04 04:43:00,34.3,33.1,30.04,North,350,0.0,0.0,95,0.00,,,0.00,0.0,meteobridge,2013-05-04 09:43:00,
2013-05-04 04:46:00,34.3,33.1,30.04,North,350,0.0,0.0,95,0.00,,,0.00,0.0,meteobridge,2013-05-04 09:46:00,
2013-05-04 04:47:00,34.2,32.9,30.04,North,350,0.0,0.0,95,0.00,,,0.00,0.0,meteobridge,2013-05-04 09:47:00,
2013-05-04 04:48:00,34.2,32.9,30.04,North,350,0.0,0.0,95,0.00,,,0.00,0.0,meteobridge,2013-05-04 09:48:00,
2013-05-04 04:51:00,34.0,32.7,30.04,North,350,0.0,0.0,95,0.00,,,0.00,0.0,meteobridge,2013-05-04 09:51:00,
2013-05-04 04:53:00,34.0,32.7,30.04,North,350,0.0,0.0,95,0.00,,,0.00,0.0,meteobridge,2013-05-04 09:53:00,
2013-05-04 04:55:00,34.0,32.7,30.04,North,350,0.0,0.0,95,0.00,,,0.00,0.0,meteobridge,2013-05-04 09:55:00,
2013-05-04 04:56:00,34.0,32.7,30.04,North,350,0.0,0.0,95,0.00,,,0.00,0.0,meteobridge,2013-05-04 09:56:00,
2013-05-04 04:58:00,34.0,32.7,30.04,North,350,0.0,0.0,95,0.00,,,0.00,0.0,meteobridge,2013-05-04 09:58:00,
2013-05-04 04:59:00,34.0,32.7,30.04,North,350,0.0,0.0,95,0.00,,,0.00,0.0,meteobridge,2013-05-04 09:59:00,
2013-05-04 05:00:00,34.0,32.7,30.04,North,350,0.0,0.0,95,0.00,,,0.00,0.0,meteobridge,2013-05-04 10:00:00,
2013-05-04 05:01:00,34.0,32.7,30.04,North,350,0.0,0.0,95,0.00,,,0.00,0.0,meteobridge,2013-05-04 10:01:00,
2013-05-04 05:03:00,34.0,32.7,30.04,North,350,0.0,0.0,95,0.00,,,0.00,0.0,meteobridge,2013-05-04 10:03:00,
2013-05-04 05:04:00,34.0,32.7,30.04,North,350,0.0,0.0,95,0.00,,,0.00,0.0,meteobridge,2013-05-04 10:04:00,
2013-05-04 05:05:00,33.8,32.5,30.04,North,350,0.0,0.0,95,0.00,,,0.00,0.0,meteobridge,2013-05-04 10:05:00,
2013-05-04 05:06:00,33.8,32.5,30.04,North,350,0.0,0.0,95,0.00,,,0.00,0.0,meteobridge,2013-05-04 10:06:00,
2013-05-04 05:07:00,33.8,32.5,30.04,North,350,0.0,0.0,95,0.00,,,0.00,0.0,meteobridge,2013-05-04 10:07:00,
2013-05-04 05:08:00,33.8,32.5,30.04,North,350,0.0,0.0,95,0.00,,,0.00,0.0,meteobridge,2013-05-04 10:08:00,
2013-05-04 05:10:00,33.6,32.4,30.04,North,350,0.0,0.0,95,0.00,,,0.00,0.0,meteobridge,2013-05-04 10:10:00,
2013-05-04 05:11:00,33.6,32.4,30.04,North,350,0.0,0.0,95,0.00,,,0.00,0.0,meteobridge,2013-05-04 10:11:00,
2013-05-04 05:12:00,33.6,32.4,30.04,North,350,0.0,0.0,95,0.00,,,0.00,0.0,meteobridge,2013-05-04 10:12:00,
2013-05-04 05:15:00,33.4,32.2,30.05,North,350,0.0,0.0,95,0.00,,,0.00,0.0,meteobridge,2013-05-04 10:15:00,
2013-05-04 05:17:00,33.6,32.4,30.05,North,350,0.0,0.0,95,0.00,,,0.00,0.0,meteobridge,2013-05-04 10:17:00,
2013-05-04 05:18:00,33.6,32.4,30.05,North,350,0.0,0.0,95,0.00,,,0.00,0.0,meteobridge,2013-05-04 10:18:00,
2013-05-04 05:19:00,33.6,32.4,30.05,North,350,0.0,0.0,95,0.00,,,0.00,0.0,meteobridge,2013-05-04 10:19:00,
2013-05-04 05:21:00,33.6,32.4,30.05,North,350,0.0,0.0,95,0.00,,,0.00,0.0,meteobridge,2013-05-04 10:21:00,
2013-05-04 05:23:00,33.6,32.4,30.05,North,350,0.0,0.0,95,0.00,,,0.00,0.0,meteobridge,2013-05-04 10:23:00,
2013-05-04 05:24:00,33.4,32.2,30.05,North,350,0.0,0.0,95,0.00,,,0.00,0.0,meteobridge,2013-05-04 10:24:00,
2013-05-04 05:27:00,33.6,32.4,30.05,North,350,0.0,0.0,95,0.00,,,0.00,0.0,meteobridge,2013-05-04 10:27:00,
2013-05-04 05:28:00,33.6,32.4,30.05,North,350,0.0,0.0,95,0.00,,,0.00,0.0,meteobridge,2013-05-04 10:28:00,
2013-05-04 05:29:00,33.6,32.4,30.04,North,350,0.0,0.0,95,0.00,,,0.00,0.0,meteobridge,2013-05-04 10:29:00,
2013-05-04 05:30:00,33.6,32.4,30.05,North,350,0.0,0.0,95,0.00,,,0.00,0.0,meteobridge,2013-05-04 10:30:00,
2013-05-04 05:33:00,33.4,32.2,30.05,North,350,0.0,0.0,95,0.00,,,0.00,0.0,meteobridge,2013-05-04 10:33:00,
2013-05-04 05:35:00,33.3,32.0,30.05,North,350,0.0,0.0,95,0.00,,,0.00,0.0,meteobridge,2013-05-04 10:35:00,
2013-05-04 05:38:00,33.3,32.0,30.05,North,350,0.0,0.0,95,0.00,,,0.00,0.0,meteobridge,2013-05-04 10:38:00,
2013-05-04 05:40:00,33.1,31.8,30.05,North,350,0.0,0.0,95,0.00,,,0.00,0.0,meteobridge,2013-05-04 10:40:00,
2013-05-04 05:41:00,33.1,31.8,30.05,North,350,0.0,0.0,95,0.00,,,0.00,0.0,meteobridge,2013-05-04 10:41:00,
2013-05-04 05:42:00,33.1,31.8,30.05,North,350,0.0,0.0,95,0.00,,,0.00,0.0,meteobridge,2013-05-04 10:42:00,
2013-05-04 05:43:00,32.9,31.6,30.05,North,350,0.0,0.0,95,0.00,,,0.00,0.0,meteobridge,2013-05-04 10:43:00,
2013-05-04 05:46:00,32.9,31.6,30.05,North,350,0.0,0.0,95,0.00,,,0.00,0.0,meteobridge,2013-05-04 10:46:00,
2013-05-04 05:47:00,32.7,31.5,30.05,North,350,0.0,0.0,95,0.00,,,0.00,0.0,meteobridge,2013-05-04 10:47:00,
2013-05-04 05:48:00,32.9,31.6,30.05,North,350,0.0,0.0,95,0.00,,,0.00,0.0,meteobridge,2013-05-04 10:48:00,
2013-05-04 05:49:00,32.9,31.6,30.05,North,350,0.0,0.0,95,0.00,,,0.00,0.0,meteobridge,2013-05-04 10:49:00,
2013-05-04 05:50:00,32.9,31.6,30.05,North,350,0.0,0.0,95,0.00,,,0.00,0.0,meteobridge,2013-05-04 10:50:00,
2013-05-04 05:52:00,32.9,31.6,30.05,North,350,0.0,0.0,95,0.00,,,0.00,0.0,meteobridge,2013-05-04 10:52:00,
2013-05-04 05:53:00,32.9,31.6,30.05,North,350,0.0,0.0,95,0.00,,,0.00,0.0,meteobridge,2013-05-04 10:53:00,
2013-05-04 05:54:00,32.9,31.6,30.05,North,350,0.0,0.0,95,0.00,,,0.00,0.0,meteobridge,2013-05-04 10:54:00,
2013-05-04 05:57:00,32.7,31.5,30.05,North,350,0.0,0.0,95,0.00,,,0.00,0.0,meteobridge,2013-05-04 10:57:00,
2013-05-04 05:58:00,32.7,31.5,30.05,North,350,0.0,0.0,95,0.00,,,0.00,0.0,meteobridge,2013-05-04 10:58:00,
2013-05-04 05:59:00,32.7,31.5,30.05,North,350,0.0,0.0,95,0.00,,,0.00,0.0,meteobridge,2013-05-04 10:59:00,
2013-05-04 06:02:00,32.7,31.5,30.05,North,350,0.0,0.0,95,0.00,,,0.00,0.0,meteobridge,2013-05-04 11:02:00,
2013-05-04 06:03:00,32.5,31.3,30.05,North,350,0.0,0.0,95,0.00,,,0.00,0.0,meteobridge,2013-05-04 11:03:00,
2013-05-04 06:04:00,32.5,31.3,30.05,North,350,0.0,0.0,95,0.00,,,0.00,0.0,meteobridge,2013-05-04 11:04:00,
2013-05-04 06:05:00,32.5,31.3,30.05,North,350,0.0,0.0,95,0.00,,,0.00,0.0,meteobridge,2013-05-04 11:05:00,
2013-05-04 06:08:00,32.7,31.5,30.05,North,350,0.0,0.0,95,0.00,,,0.00,0.0,meteobridge,2013-05-04 11:08:00,
2013-05-04 06:09:00,32.7,31.5,30.05,North,350,0.0,0.0,95,0.00,,,0.00,0.0,meteobridge,2013-05-04 11:09:00,
2013-05-04 06:11:00,32.7,31.5,30.06,North,350,0.0,0.0,95,0.00,,,0.00,0.0,meteobridge,2013-05-04 11:11:00,
2013-05-04 06:13:00,32.7,31.5,30.06,North,350,0.0,0.0,95,0.00,,,0.00,0.0,meteobridge,2013-05-04 11:13:00,
2013-05-04 06:14:00,32.7,31.5,30.06,North,350,0.0,0.0,95,0.00,,,0.00,0.0,meteobridge,2013-05-04 11:14:00,
2013-05-04 06:16:00,32.7,31.5,30.05,North,350,0.0,0.0,95,0.00,,,0.00,0.0,meteobridge,2013-05-04 11:16:00,
2013-05-04 06:17:00,32.7,31.5,30.05,North,350,0.0,0.0,95,0.00,,,0.00,0.0,meteobridge,2013-05-04 11:17:00,
2013-05-04 06:19:00,32.7,31.5,30.06,North,350,0.0,0.0,95,0.00,,,0.00,0.0,meteobridge,2013-05-04 11:19:00,
2013-05-04 06:20:00,32.5,31.3,30.06,North,350,0.0,0.0,95,0.00,,,0.00,0.0,meteobridge,2013-05-04 11:20:00,
2013-05-04 06:22:00,32.7,31.5,30.06,North,350,0.0,0.0,95,0.00,,,0.00,0.0,meteobridge,2013-05-04 11:22:00,
2013-05-04 06:24:00,32.7,31.5,30.06,North,350,0.0,0.0,95,0.00,,,0.00,0.0,meteobridge,2013-05-04 11:24:00,
2013-05-04 06:25:00,32.7,31.5,30.06,North,350,0.0,0.0,95,0.00,,,0.00,0.0,meteobridge,2013-05-04 11:25:00,
2013-05-04 06:27:00,32.5,31.3,30.06,North,350,0.0,0.0,95,0.00,,,0.00,0.0,meteobridge,2013-05-04 11:27:00,
2013-05-04 06:28:00,32.5,31.3,30.06,North,350,0.0,0.0,95,0.00,,,0.00,0.0,meteobridge,2013-05-04 11:28:00,
2013-05-04 06:29:00,32.5,31.3,30.06,North,350,0.0,0.0,95,0.00,,,0.00,0.0,meteobridge,2013-05-04 11:29:00,
2013-05-04 06:32:00,32.5,31.3,30.06,North,350,0.0,0.0,95,0.00,,,0.00,0.0,meteobridge,2013-05-04 11:32:00,
2013-05-04 06:34:00,32.5,31.3,30.06,North,350,0.0,0.0,95,0.00,,,0.00,5.0,meteobridge,2013-05-04 11:34:00,
2013-05-04 06:35:00,32.5,31.3,30.06,North,350,0.0,0.0,95,0.00,,,0.00,5.0,meteobridge,2013-05-04 11:35:00,
2013-05-04 06:37:00,32.5,31.3,30.06,North,350,0.0,0.0,95,0.00,,,0.00,5.0,meteobridge,2013-05-04 11:37:00,
2013-05-04 06:38:00,32.5,31.3,30.06,North,350,0.0,0.0,95,0.00,,,0.00,5.0,meteobridge,2013-05-04 11:38:00,
2013-05-04 06:40:00,32.4,31.1,30.06,North,350,0.0,0.0,95,0.00,,,0.00,7.0,meteobridge,2013-05-04 11:40:00,
2013-05-04 06:41:00,32.4,31.1,30.06,North,350,0.0,0.0,95,0.00,,,0.00,9.0,meteobridge,2013-05-04 11:41:00,
2013-05-04 06:44:00,32.5,31.3,30.06,North,350,0.0,0.0,95,0.00,,,0.00,11.0,meteobridge,2013-05-04 11:44:00,
2013-05-04 06:45:00,32.5,31.5,30.06,North,350,0.0,0.0,96,0.00,,,0.00,11.0,meteobridge,2013-05-04 11:45:00,
2013-05-04 06:47:00,32.5,31.5,30.06,North,350,0.0,0.0,96,0.00,,,0.00,11.0,meteobridge,2013-05-04 11:47:00,
2013-05-04 06:51:00,32.7,31.5,30.06,North,350,0.0,0.0,95,0.00,,,0.00,14.0,meteobridge,2013-05-04 11:51:00,
2013-05-04 06:52:00,32.5,31.3,30.06,North,350,0.0,0.0,95,0.00,,,0.00,14.0,meteobridge,2013-05-04 11:52:00,
2013-05-04 06:53:00,32.5,31.3,30.06,North,350,0.0,0.0,95,0.00,,,0.00,14.0,meteobridge,2013-05-04 11:53:00,
2013-05-04 06:56:00,32.5,31.3,30.06,North,350,0.0,0.0,95,0.00,,,0.00,16.0,meteobridge,2013-05-04 11:56:00,
2013-05-04 06:57:00,32.5,31.3,30.06,North,350,0.0,0.0,95,0.00,,,0.00,16.0,meteobridge,2013-05-04 11:57:00,
2013-05-04 06:58:00,32.5,31.3,30.06,North,350,0.0,0.0,95,0.00,,,0.00,18.0,meteobridge,2013-05-04 11:58:00,
2013-05-04 06:59:00,32.7,31.6,30.06,North,350,0.0,0.0,96,0.00,,,0.00,18.0,meteobridge,2013-05-04 11:59:00,
2013-05-04 07:02:00,32.9,31.6,30.06,North,350,0.0,0.0,95,0.00,,,0.00,19.0,meteobridge,2013-05-04 12:02:00,
2013-05-04 07:03:00,33.1,32.0,30.06,North,350,0.0,0.0,96,0.00,,,0.00,19.0,meteobridge,2013-05-04 12:03:00,
2013-05-04 07:04:00,33.1,32.0,30.06,North,350,0.0,0.0,96,0.00,,,0.00,21.0,meteobridge,2013-05-04 12:04:00,
2013-05-04 07:07:00,33.3,32.2,30.06,North,350,0.0,0.0,96,0.00,,,0.00,21.0,meteobridge,2013-05-04 12:07:00,
2013-05-04 07:08:00,33.3,32.2,30.06,North,350,0.0,0.0,96,0.00,,,0.00,21.0,meteobridge,2013-05-04 12:08:00,
2013-05-04 07:09:00,33.4,32.4,30.06,North,350,0.0,0.0,96,0.00,,,0.00,23.0,meteobridge,2013-05-04 12:09:00,
2013-05-04 07:13:00,33.4,32.4,30.06,North,350,0.0,0.0,96,0.00,,,0.00,25.0,meteobridge,2013-05-04 12:13:00,
2013-05-04 07:14:00,33.4,32.4,30.06,North,350,0.0,0.0,96,0.00,,,0.00,25.0,meteobridge,2013-05-04 12:14:00,
2013-05-04 07:16:00,33.6,32.5,30.06,North,350,0.0,0.0,96,0.00,,,0.00,26.0,meteobridge,2013-05-04 12:16:00,
2013-05-04 07:19:00,33.6,32.5,30.06,North,350,0.0,0.0,96,0.00,,,0.00,26.0,meteobridge,2013-05-04 12:19:00,
2013-05-04 07:20:00,33.8,32.7,30.06,North,350,0.0,0.0,96,0.00,,,0.00,26.0,meteobridge,2013-05-04 12:20:00,
2013-05-04 07:21:00,34.0,32.9,30.06,North,350,0.0,0.0,96,0.00,,,0.00,26.0,meteobridge,2013-05-04 12:21:00,
2013-05-04 07:24:00,34.2,33.1,30.06,North,350,0.0,0.0,96,0.00,,,0.00,28.0,meteobridge,2013-05-04 12:24:00,
2013-05-04 07:26:00,34.3,33.3,30.06,North,350,0.0,0.0,96,0.00,,,0.00,28.0,meteobridge,2013-05-04 12:26:00,
2013-05-04 07:27:00,34.3,33.3,30.06,North,350,0.0,0.0,96,0.00,,,0.00,32.0,meteobridge,2013-05-04 12:27:00,
2013-05-04 07:30:00,34.7,33.6,30.06,North,350,0.0,0.0,96,0.00,,,0.00,32.0,meteobridge,2013-05-04 12:30:00,
2013-05-04 07:31:00,34.9,33.8,30.06,North,350,0.0,0.0,96,0.00,,,0.00,33.0,meteobridge,2013-05-04 12:31:00,
2013-05-04 07:33:00,35.1,34.0,30.06,North,350,0.0,0.0,96,0.00,,,0.00,33.0,meteobridge,2013-05-04 12:33:00,
2013-05-04 07:34:00,35.1,34.0,30.06,North,350,0.0,0.0,96,0.00,,,0.00,35.0,meteobridge,2013-05-04 12:34:00,
2013-05-04 07:35:00,35.2,34.2,30.06,North,350,0.0,0.0,96,0.00,,,0.00,40.0,meteobridge,2013-05-04 12:35:00,
2013-05-04 07:36:00,35.4,34.3,30.06,North,350,0.0,0.0,96,0.00,,,0.00,40.0,meteobridge,2013-05-04 12:36:00,
2013-05-04 07:39:00,35.8,34.7,30.06,North,350,0.0,0.0,96,0.00,,,0.00,42.0,meteobridge,2013-05-04 12:39:00,
2013-05-04 07:41:00,36.1,35.1,30.06,North,350,0.0,0.0,96,0.00,,,0.00,39.0,meteobridge,2013-05-04 12:41:00,
2013-05-04 07:42:00,36.1,35.1,30.06,North,350,0.0,0.0,96,0.00,,,0.00,35.0,meteobridge,2013-05-04 12:42:00,
2013-05-04 07:45:00,36.7,35.6,30.06,North,350,0.0,0.0,96,0.00,,,0.00,35.0,meteobridge,2013-05-04 12:45:00,
2013-05-04 07:46:00,36.7,35.6,30.06,North,350,0.0,0.0,96,0.00,,,0.00,35.0,meteobridge,2013-05-04 12:46:00,
2013-05-04 07:47:00,36.9,35.8,30.06,North,350,0.0,0.0,96,0.00,,,0.00,37.0,meteobridge,2013-05-04 12:47:00,
2013-05-04 07:49:00,37.0,36.0,30.07,North,350,0.0,0.0,96,0.00,,,0.00,54.0,meteobridge,2013-05-04 12:49:00,
2013-05-04 07:51:00,37.4,36.3,30.06,North,350,0.0,0.0,96,0.00,,,0.00,42.0,meteobridge,2013-05-04 12:51:00,
2013-05-04 07:52:00,37.8,36.7,30.06,North,350,0.0,0.0,96,0.00,,,0.00,39.0,meteobridge,2013-05-04 12:52:00,
2013-05-04 07:54:00,38.1,37.0,30.07,North,350,0.0,0.0,96,0.00,,,0.00,39.0,meteobridge,2013-05-04 12:54:00,
2013-05-04 07:55:00,38.1,37.0,30.06,North,350,0.0,0.0,96,0.00,,,0.00,39.0,meteobridge,2013-05-04 12:55:00,
2013-05-04 07:57:00,38.5,37.4,30.07,North,350,0.0,0.0,96,0.00,,,0.00,44.0,meteobridge,2013-05-04 12:57:00,
2013-05-04 07:58:00,38.7,37.6,30.06,North,350,0.0,0.0,96,0.00,,,0.00,49.0,meteobridge,2013-05-04 12:58:00,
2013-05-04 07:59:00,38.8,37.8,30.06,North,350,0.0,0.0,96,0.00,,,0.00,54.0,meteobridge,2013-05-04 12:59:00,
2013-05-04 08:00:00,39.4,38.3,30.06,North,350,0.0,0.0,96,0.00,,,0.00,49.0,meteobridge,2013-05-04 13:00:00,
2013-05-04 08:02:00,39.6,38.5,30.06,North,350,0.0,0.0,96,0.00,,,0.00,53.0,meteobridge,2013-05-04 13:02:00,
2013-05-04 08:03:00,39.9,39.2,30.06,North,350,0.0,0.0,97,0.00,,,0.00,69.0,meteobridge,2013-05-04 13:03:00,
2013-05-04 08:05:00,40.5,39.7,30.06,North,350,0.0,0.0,97,0.00,,,0.00,60.0,meteobridge,2013-05-04 13:05:00,
2013-05-04 08:07:00,40.8,40.1,30.06,North,350,0.0,0.0,97,0.00,,,0.00,40.0,meteobridge,2013-05-04 13:07:00,
2013-05-04 08:09:00,41.2,40.5,30.06,North,350,0.0,0.0,97,0.00,,,0.00,44.0,meteobridge,2013-05-04 13:09:00,
2013-05-04 08:10:00,41.2,40.1,30.06,North,350,0.0,0.0,96,0.00,,,0.00,42.0,meteobridge,2013-05-04 13:10:00,
2013-05-04 08:13:00,41.5,40.5,30.06,North,350,0.0,0.0,96,0.00,,,0.00,47.0,meteobridge,2013-05-04 13:13:00,
2013-05-04 08:14:00,41.7,40.6,30.06,North,350,0.0,0.0,96,0.00,,,0.00,56.0,meteobridge,2013-05-04 13:14:00,
2013-05-04 08:15:00,42.1,41.0,30.06,North,350,0.0,0.0,96,0.00,,,0.00,56.0,meteobridge,2013-05-04 13:15:00,
2013-05-04 08:16:00,42.1,41.0,30.06,North,350,0.0,0.0,96,0.00,,,0.00,62.0,meteobridge,2013-05-04 13:16:00,
2013-05-04 08:17:00,42.1,41.0,30.06,North,350,0.0,0.0,96,0.00,,,0.00,69.0,meteobridge,2013-05-04 13:17:00,
2013-05-04 08:20:00,42.6,41.5,30.06,North,350,0.0,0.0,96,0.00,,,0.00,269.0,meteobridge,2013-05-04 13:20:00,
2013-05-04 08:21:00,43.0,41.7,30.06,North,350,0.0,0.0,95,0.00,,,0.00,308.0,meteobridge,2013-05-04 13:21:00,
2013-05-04 08:22:00,43.2,42.1,30.06,North,350,0.0,0.0,96,0.00,,,0.00,308.0,meteobridge,2013-05-04 13:22:00,
2013-05-04 08:25:00,43.9,42.8,30.06,North,350,0.0,0.0,96,0.00,,,0.00,304.0,meteobridge,2013-05-04 13:25:00,
2013-05-04 08:26:00,44.8,43.7,30.06,North,350,0.0,0.0,96,0.00,,,0.00,174.0,meteobridge,2013-05-04 13:26:00,
2013-05-04 08:27:00,45.0,43.9,30.06,North,350,0.0,0.0,96,0.00,,,0.00,174.0,meteobridge,2013-05-04 13:27:00,
2013-05-04 08:30:00,46.6,45.1,30.06,North,350,0.0,0.0,95,0.00,,,0.00,137.0,meteobridge,2013-05-04 13:30:00,
2013-05-04 08:31:00,46.9,45.3,30.06,North,350,0.0,0.0,94,0.00,,,0.00,345.0,meteobridge,2013-05-04 13:31:00,
2013-05-04 08:32:00,46.9,45.3,30.06,North,350,0.0,0.0,94,0.00,,,0.00,345.0,meteobridge,2013-05-04 13:32:00,
2013-05-04 08:35:00,47.8,45.9,30.07,North,350,0.0,0.0,93,0.00,,,0.00,220.0,meteobridge,2013-05-04 13:35:00,
2013-05-04 08:36:00,48.4,46.2,30.07,North,350,0.0,0.0,92,0.00,,,0.00,185.0,meteobridge,2013-05-04 13:36:00,
2013-05-04 08:37:00,48.6,46.4,30.07,North,350,0.0,0.0,92,0.00,,,0.00,185.0,meteobridge,2013-05-04 13:37:00,
2013-05-04 08:42:00,50.4,46.4,30.07,North,350,0.0,2.0,86,0.00,,,0.00,346.0,meteobridge,2013-05-04 13:42:00,
2013-05-04 08:43:00,50.4,46.4,30.07,North,350,0.0,0.0,86,0.00,,,0.00,383.0,meteobridge,2013-05-04 13:43:00,
2013-05-04 08:44:00,50.9,46.2,30.07,North,350,0.0,0.0,84,0.00,,,0.00,388.0,meteobridge,2013-05-04 13:44:00,
2013-05-04 08:48:00,52.3,46.0,30.07,North,350,0.0,0.9,79,0.00,,,0.00,406.0,meteobridge,2013-05-04 13:48:00,
2013-05-04 08:49:00,52.5,46.2,30.07,North,350,0.0,0.0,79,0.00,,,0.00,410.0,meteobridge,2013-05-04 13:49:00,
2013-05-04 08:50:00,53.1,46.0,30.07,NNE,15,0.0,2.0,77,0.00,,,0.00,418.0,meteobridge,2013-05-04 13:50:00,
2013-05-04 08:53:00,53.8,45.7,30.07,SSE,155,0.0,0.9,74,0.00,,,0.00,383.0,meteobridge,2013-05-04 13:53:00,
2013-05-04 08:55:00,54.3,45.9,30.07,SSE,149,0.0,2.0,73,0.00,,,0.00,174.0,meteobridge,2013-05-04 13:55:00,
2013-05-04 08:56:00,54.5,45.7,30.07,SSE,149,0.0,2.0,72,0.00,,,0.00,134.0,meteobridge,2013-05-04 13:56:00,
2013-05-04 08:57:00,54.9,45.7,30.06,South,186,0.0,2.0,71,0.00,,,0.00,76.0,meteobridge,2013-05-04 13:57:00,
2013-05-04 08:58:00,55.2,46.4,30.06,West,268,0.0,2.9,72,0.00,,,0.00,63.0,meteobridge,2013-05-04 13:58:00,
2013-05-04 09:01:00,55.9,46.2,30.07,West,268,0.0,0.9,70,0.00,,,0.00,135.0,meteobridge,2013-05-04 14:01:00,
2013-05-04 09:02:00,55.9,46.2,30.07,West,268,0.0,0.9,70,0.00,,,0.00,135.0,meteobridge,2013-05-04 14:02:00,
2013-05-04 09:06:00,57.0,45.9,30.07,SW,225,2.0,2.0,66,0.00,,,0.00,501.0,meteobridge,2013-05-04 14:06:00,
2013-05-04 09:07:00,57.0,45.9,30.07,SW,225,0.0,2.0,66,0.00,,,0.00,504.0,meteobridge,2013-05-04 14:07:00,
2013-05-04 09:09:00,57.9,46.2,30.07,SSW,207,2.0,2.9,65,0.00,,,0.00,512.0,meteobridge,2013-05-04 14:09:00,
2013-05-04 09:12:00,58.6,46.6,30.07,WNW,298,2.0,2.9,64,0.00,,,0.00,524.0,meteobridge,2013-05-04 14:12:00,
2013-05-04 09:13:00,58.6,46.0,30.07,WNW,298,0.9,2.0,63,0.00,,,0.00,526.0,meteobridge,2013-05-04 14:13:00,
2013-05-04 09:14:00,58.8,46.2,30.07,SSW,196,2.9,2.9,63,0.00,,,0.00,531.0,meteobridge,2013-05-04 14:14:00,
2013-05-04 09:15:00,58.8,46.2,30.07,WNW,286,4.0,4.0,63,0.00,,,0.00,534.0,meteobridge,2013-05-04 14:15:00,
2013-05-04 09:17:00,59.4,46.8,30.07,WSW,253,0.0,4.0,63,0.00,,,0.00,543.0,meteobridge,2013-05-04 14:17:00,
2013-05-04 09:18:00,59.7,48.0,30.07,WSW,253,0.0,2.0,65,0.00,,,0.00,547.0,meteobridge,2013-05-04 14:18:00,
2013-05-04 09:19:00,59.7,46.8,30.07,SW,218,0.0,2.9,62,0.00,,,0.00,550.0,meteobridge,2013-05-04 14:19:00,
2013-05-04 09:20:00,60.1,46.6,30.07,SW,223,0.0,2.9,61,0.00,,,0.00,555.0,meteobridge,2013-05-04 14:20:00,
2013-05-04 09:23:00,60.3,45.9,30.07,SSE,159,2.9,4.9,59,0.00,,,0.00,561.0,meteobridge,2013-05-04 14:23:00,
2013-05-04 09:24:00,60.3,45.5,30.07,SSW,197,2.9,4.9,58,0.00,,,0.00,568.0,meteobridge,2013-05-04 14:24:00,
2013-05-04 09:25:00,60.4,45.7,30.07,SW,218,0.0,4.0,58,0.00,,,0.00,570.0,meteobridge,2013-05-04 14:25:00,
2013-05-04 09:27:00,60.6,45.3,30.07,SW,215,2.9,2.9,57,0.00,,,0.00,575.0,meteobridge,2013-05-04 14:27:00,
2013-05-04 09:29:00,61.2,45.9,30.07,NW,312,0.0,2.9,57,0.00,,,0.00,582.0,meteobridge,2013-05-04 14:29:00,
2013-05-04 09:30:00,61.3,45.0,30.07,SE,138,0.0,8.1,55,0.00,,,0.00,587.0,meteobridge,2013-05-04 14:30:00,
2013-05-04 09:32:00,61.5,44.2,30.07,South,187,2.0,4.0,53,0.00,,,0.00,594.0,meteobridge,2013-05-04 14:32:00,
2013-05-04 09:35:00,61.9,44.6,30.07,SSE,167,2.9,4.0,53,0.00,,,0.00,603.0,meteobridge,2013-05-04 14:35:00,
2013-05-04 09:36:00,62.1,45.7,30.07,SSW,193,4.9,4.9,55,0.00,,,0.00,605.0,meteobridge,2013-05-04 14:36:00,
2013-05-04 09:37:00,62.2,45.0,30.07,SSW,193,2.0,6.9,53,0.00,,,0.00,612.0,meteobridge,2013-05-04 14:37:00,
2013-05-04 09:40:00,62.2,43.9,30.07,SW,227,2.9,6.0,51,0.00,,,0.00,619.0,meteobridge,2013-05-04 14:40:00,
2013-05-04 09:41:00,62.2,42.8,30.07,SW,221,0.0,6.0,49,0.00,,,0.00,624.0,meteobridge,2013-05-04 14:41:00,
2013-05-04 09:42:00,62.4,44.6,30.07,SW,221,0.9,4.0,52,0.00,,,0.00,626.0,meteobridge,2013-05-04 14:42:00,
2013-05-04 09:43:00,62.6,43.2,30.07,NNW,345,2.9,4.9,49,0.00,,,0.00,629.0,meteobridge,2013-05-04 14:43:00,
2013-05-04 09:45:00,63.3,44.4,30.07,West,267,2.0,4.9,50,0.00,,,0.00,638.0,meteobridge,2013-05-04 14:45:00,
2013-05-04 09:46:00,63.5,44.1,30.07,SE,136,6.9,6.9,49,0.00,,,0.00,640.0,meteobridge,2013-05-04 14:46:00,
2013-05-04 09:48:00,63.7,42.4,30.07,SW,225,2.0,6.9,46,0.00,,,0.00,647.0,meteobridge,2013-05-04 14:48:00,
2013-05-04 09:51:00,64.0,43.3,30.07,South,177,2.0,2.9,47,0.00,,,0.00,656.0,meteobridge,2013-05-04 14:51:00,
2013-05-04 09:52:00,64.0,42.3,30.07,NNW,332,2.0,4.9,45,0.00,,,0.00,659.0,meteobridge,2013-05-04 14:52:00,
2013-05-04 09:53:00,64.2,42.4,30.07,SSW,210,0.9,2.9,45,0.00,,,0.00,663.0,meteobridge,2013-05-04 14:53:00,
2013-05-04 09:56:00,64.4,42.1,30.07,SSW,208,0.9,4.9,44,0.00,,,0.00,671.0,meteobridge,2013-05-04 14:56:00,
2013-05-04 09:57:00,64.6,43.3,30.07,SSW,194,0.9,4.9,46,0.00,,,0.00,675.0,meteobridge,2013-05-04 14:57:00,
2013-05-04 09:59:00,64.8,43.0,30.07,SSW,203,2.0,6.0,45,0.00,,,0.00,682.0,meteobridge,2013-05-04 14:59:00,
2013-05-04 10:01:00,64.9,43.7,30.06,South,190,2.9,4.9,46,0.00,,,0.00,691.0,meteobridge,2013-05-04 15:01:00,
2013-05-04 10:02:00,64.9,43.7,30.06,SSE,161,0.9,4.9,46,0.00,,,0.00,693.0,meteobridge,2013-05-04 15:02:00,
2013-05-04 10:03:00,64.9,43.2,30.07,ESE,107,2.0,4.9,45,0.00,,,0.00,696.0,meteobridge,2013-05-04 15:03:00,
2013-05-04 10:04:00,65.1,42.6,30.06,SSW,192,0.9,2.9,44,0.00,,,0.00,701.0,meteobridge,2013-05-04 15:04:00,
2013-05-04 10:07:00,64.9,41.9,30.07,SW,232,0.9,4.9,43,0.00,,,0.00,710.0,meteobridge,2013-05-04 15:07:00,
2013-05-04 10:08:00,64.9,42.4,30.06,SW,232,0.9,4.0,44,0.00,,,0.00,712.0,meteobridge,2013-05-04 15:08:00,
2013-05-04 10:09:00,64.9,42.4,30.06,SW,230,0.9,2.0,44,0.00,,,0.00,717.0,meteobridge,2013-05-04 15:09:00,
2013-05-04 10:10:00,65.1,42.1,30.06,ESE,110,0.9,4.0,43,0.00,,,0.00,721.0,meteobridge,2013-05-04 15:10:00,
2013-05-04 10:12:00,65.7,42.6,30.06,ESE,123,0.9,4.0,43,0.00,,,0.00,729.0,meteobridge,2013-05-04 15:12:00,
2013-05-04 10:14:00,66.0,41.7,30.06,South,170,2.9,6.0,41,0.00,,,0.00,733.0,meteobridge,2013-05-04 15:14:00,
2013-05-04 10:15:00,65.8,42.1,30.06,SSW,197,0.0,6.0,42,0.00,,,0.00,738.0,meteobridge,2013-05-04 15:15:00,
2013-05-04 10:17:00,66.0,42.8,30.06,SSW,209,2.0,4.0,43,0.00,,,0.00,744.0,meteobridge,2013-05-04 15:17:00,
2013-05-04 10:18:00,66.4,43.2,30.06,SSW,209,2.0,4.0,43,0.00,,,0.00,744.0,meteobridge,2013-05-04 15:18:00,
2013-05-04 10:19:00,66.7,42.3,30.06,South,175,4.9,6.9,41,0.00,,,0.00,744.0,meteobridge,2013-05-04 15:19:00,
2013-05-04 10:22:00,66.0,40.3,30.06,SW,234,2.0,4.9,39,0.00,,,0.00,754.0,meteobridge,2013-05-04 15:22:00,
2013-05-04 10:23:00,66.4,41.4,30.06,WSW,250,2.9,2.9,40,0.00,,,0.00,759.0,meteobridge,2013-05-04 15:23:00,
2013-05-04 10:25:00,66.7,43.0,30.06,SW,236,6.9,6.9,42,0.00,,,0.00,765.0,meteobridge,2013-05-04 15:25:00,
2013-05-04 10:27:00,66.9,41.2,30.06,SSW,210,0.0,6.9,39,0.00,,,0.00,770.0,meteobridge,2013-05-04 15:27:00,
2013-05-04 10:28:00,67.3,42.1,30.06,South,189,2.9,6.9,40,0.00,,,0.00,775.0,meteobridge,2013-05-04 15:28:00,
2013-05-04 10:29:00,67.5,42.3,30.06,South,190,2.9,6.9,40,0.00,,,0.00,779.0,meteobridge,2013-05-04 15:29:00,
2013-05-04 10:30:00,67.5,41.7,30.06,WNW,285,0.9,4.9,39,0.00,,,0.00,779.0,meteobridge,2013-05-04 15:30:00,
2013-05-04 10:32:00,67.6,39.7,30.06,SSE,168,0.0,4.9,36,0.00,,,0.00,784.0,meteobridge,2013-05-04 15:32:00,
2013-05-04 10:33:00,67.6,40.5,30.06,SSW,207,2.0,4.9,37,0.00,,,0.00,788.0,meteobridge,2013-05-04 15:33:00,
2013-05-04 10:35:00,67.5,41.0,30.06,SW,224,2.0,6.0,38,0.00,,,0.00,793.0,meteobridge,2013-05-04 15:35:00,
2013-05-04 10:36:00,67.6,42.4,30.06,SSW,207,0.9,4.0,40,0.00,,,0.00,798.0,meteobridge,2013-05-04 15:36:00,
2013-05-04 10:38:00,67.8,42.6,30.06,SSW,206,0.9,2.9,40,0.00,,,0.00,800.0,meteobridge,2013-05-04 15:38:00,
2013-05-04 10:39:00,68.2,43.0,30.06,South,180,4.0,4.0,40,0.00,,,0.00,802.0,meteobridge,2013-05-04 15:39:00,
2013-05-04 10:40:00,68.2,41.0,30.06,SSW,205,2.9,4.0,37,0.00,,,0.00,805.0,meteobridge,2013-05-04 15:40:00,
2013-05-04 10:43:00,68.5,42.6,30.05,SSE,166,0.0,2.0,39,0.00,,,0.00,814.0,meteobridge,2013-05-04 15:43:00,
2013-05-04 10:44:00,68.5,43.3,30.05,SSE,166,0.0,2.0,40,0.00,,,0.00,814.0,meteobridge,2013-05-04 15:44:00,
2013-05-04 10:45:00,69.4,44.8,30.05,ESE,117,2.0,6.0,41,0.00,,,0.00,817.0,meteobridge,2013-05-04 15:45:00,
2013-05-04 10:49:00,69.3,43.2,30.05,NW,317,4.9,8.1,39,0.00,,,0.00,824.0,meteobridge,2013-05-04 15:49:00,
2013-05-04 10:50:00,69.3,41.2,30.05,SW,214,2.9,8.1,36,0.00,,,0.00,828.0,meteobridge,2013-05-04 15:50:00,
2013-05-04 10:51:00,69.3,41.9,30.05,SSW,205,0.9,4.9,37,0.00,,,0.00,831.0,meteobridge,2013-05-04 15:51:00,
2013-05-04 10:54:00,70.3,43.5,30.05,WSW,244,0.0,4.9,38,0.00,,,0.00,838.0,meteobridge,2013-05-04 15:54:00,
2013-05-04 10:56:00,70.3,42.1,30.05,West,280,4.0,4.0,36,0.00,,,0.00,840.0,meteobridge,2013-05-04 15:56:00,
2013-05-04 10:57:00,70.3,41.4,30.05,WNW,296,0.0,6.9,35,0.00,,,0.00,840.0,meteobridge,2013-05-04 15:57:00,
2013-05-04 10:59:00,70.9,41.9,30.05,South,180,0.9,4.9,35,0.00,,,0.00,849.0,meteobridge,2013-05-04 15:59:00,
2013-05-04 11:01:00,70.5,41.5,30.05,SE,128,0.0,4.9,35,0.00,,,0.00,851.0,meteobridge,2013-05-04 16:01:00,
2013-05-04 11:02:00,70.3,41.4,30.05,South,180,2.9,4.9,35,0.00,,,0.00,854.0,meteobridge,2013-05-04 16:02:00,
2013-05-04 11:03:00,70.3,40.6,30.05,NW,314,0.9,4.0,34,0.00,,,0.00,858.0,meteobridge,2013-05-04 16:03:00,
2013-05-04 11:06:00,70.2,43.3,30.05,SSW,196,0.0,4.9,38,0.00,,,0.00,865.0,meteobridge,2013-05-04 16:06:00,
2013-05-04 11:07:00,70.2,41.2,30.05,NNW,332,4.0,4.0,35,0.00,,,0.00,865.0,meteobridge,2013-05-04 16:07:00,
2013-05-04 11:08:00,70.7,42.4,30.05,NNW,348,0.9,4.9,36,0.00,,,0.00,865.0,meteobridge,2013-05-04 16:08:00,
2013-05-04 11:12:00,71.4,43.7,30.05,SSW,202,6.0,6.9,37,0.00,,,0.00,872.0,meteobridge,2013-05-04 16:12:00,
2013-05-04 11:13:00,71.2,41.4,30.05,East,91,2.0,6.9,34,0.00,,,0.00,872.0,meteobridge,2013-05-04 16:13:00,
2013-05-04 11:14:00,71.2,43.0,30.05,SSW,207,0.0,6.0,36,0.00,,,0.00,877.0,meteobridge,2013-05-04 16:14:00,
2013-05-04 11:17:00,71.4,43.2,30.05,SE,143,0.9,4.0,36,0.00,,,0.00,879.0,meteobridge,2013-05-04 16:17:00,
2013-05-04 11:18:00,71.8,43.3,30.05,SE,134,0.0,2.9,36,0.00,,,0.00,884.0,meteobridge,2013-05-04 16:18:00,
2013-05-04 11:19:00,71.8,43.3,30.05,SW,215,2.0,2.9,36,0.00,,,0.00,888.0,meteobridge,2013-05-04 16:19:00,
2013-05-04 11:20:00,71.8,43.3,30.05,South,182,6.0,6.9,36,0.00,,,0.00,888.0,meteobridge,2013-05-04 16:20:00,
2013-05-04 11:22:00,70.5,40.1,30.05,SSE,155,4.9,8.1,33,0.00,,,0.00,889.0,meteobridge,2013-05-04 16:22:00,
2013-05-04 11:23:00,70.0,41.0,30.05,South,171,4.9,6.9,35,0.00,,,0.00,888.0,meteobridge,2013-05-04 16:23:00,
2013-05-04 11:24:00,69.8,41.0,30.04,SSE,163,4.0,6.0,35,0.00,,,0.00,895.0,meteobridge,2013-05-04 16:24:00,
2013-05-04 11:25:00,69.8,41.7,30.04,SE,136,2.9,6.0,36,0.00,,,0.00,895.0,meteobridge,2013-05-04 16:25:00,
2013-05-04 11:27:00,70.0,41.7,30.04,SW,220,0.0,4.9,36,0.00,,,0.00,895.0,meteobridge,2013-05-04 16:27:00,
2013-05-04 11:28:00,70.5,43.0,30.04,SSE,159,0.9,4.0,37,0.00,,,0.00,905.0,meteobridge,2013-05-04 16:28:00,
2013-05-04 11:29:00,70.5,43.0,30.04,South,184,6.9,6.9,37,0.00,,,0.00,905.0,meteobridge,2013-05-04 16:29:00,
2013-05-04 11:32:00,70.2,41.9,30.04,WSW,244,2.0,10.1,36,0.00,,,0.00,911.0,meteobridge,2013-05-04 16:32:00,
2013-05-04 11:33:00,70.3,42.8,30.04,WSW,248,2.0,6.0,37,0.00,,,0.00,912.0,meteobridge,2013-05-04 16:33:00,
2013-05-04 11:34:00,70.5,41.5,30.04,SW,233,0.9,6.0,35,0.00,,,0.00,912.0,meteobridge,2013-05-04 16:34:00,
2013-05-04 11:35:00,70.7,41.0,30.03,South,173,2.0,6.0,34,0.00,,,0.00,918.0,meteobridge,2013-05-04 16:35:00,
2013-05-04 11:37:00,70.9,41.9,30.03,SSE,168,0.9,4.9,35,0.00,,,0.00,919.0,meteobridge,2013-05-04 16:37:00,
2013-05-04 11:39:00,71.4,43.7,30.03,SSE,168,2.0,6.9,37,0.00,,,0.00,923.0,meteobridge,2013-05-04 16:39:00,
2013-05-04 11:40:00,71.4,42.3,30.03,SSE,168,0.0,6.9,35,0.00,,,0.00,921.0,meteobridge,2013-05-04 16:40:00,
2013-05-04 11:41:00,72.0,44.2,30.03,SSW,196,0.9,4.9,37,0.00,,,0.00,925.0,meteobridge,2013-05-04 16:41:00,
2013-05-04 11:44:00,72.1,41.4,30.03,South,186,2.0,4.0,33,0.00,,,0.00,930.0,meteobridge,2013-05-04 16:44:00,
2013-05-04 11:45:00,71.6,40.1,30.03,SSW,209,2.0,8.1,32,0.00,,,0.00,933.0,meteobridge,2013-05-04 16:45:00,
2013-05-04 11:46:00,71.4,40.1,30.03,SSW,208,0.9,8.1,32,0.00,,,0.00,935.0,meteobridge,2013-05-04 16:46:00,
2013-05-04 11:49:00,71.8,41.9,30.03,SW,234,6.9,6.9,34,0.00,,,0.00,942.0,meteobridge,2013-05-04 16:49:00,
2013-05-04 11:50:00,71.8,41.9,30.03,WNW,284,6.0,6.9,34,0.00,,,0.00,942.0,meteobridge,2013-05-04 16:50:00,
2013-05-04 11:51:00,71.8,41.2,30.03,WSW,249,0.9,6.9,33,0.00,,,0.00,942.0,meteobridge,2013-05-04 16:51:00,
2013-05-04 11:52:00,71.8,41.9,30.03,NW,319,2.0,6.9,34,0.00,,,0.00,942.0,meteobridge,2013-05-04 16:52:00,
2013-05-04 11:54:00,71.8,41.9,30.03,SSW,205,4.0,6.9,34,0.00,,,0.00,946.0,meteobridge,2013-05-04 16:54:00,
2013-05-04 11:55:00,71.8,41.9,30.03,WSW,250,6.0,8.1,34,0.00,,,0.00,949.0,meteobridge,2013-05-04 16:55:00,
2013-05-04 11:56:00,71.4,40.1,30.02,SSE,163,2.9,8.9,32,0.00,,,0.00,949.0,meteobridge,2013-05-04 16:56:00,
2013-05-04 11:58:00,71.2,42.3,30.02,SSE,154,0.0,8.9,35,0.00,,,0.00,951.0,meteobridge,2013-05-04 16:58:00,
2013-05-04 12:00:00,71.8,43.3,30.02,WSW,244,2.0,6.0,36,0.00,,,0.00,953.0,meteobridge,2013-05-04 17:00:00,
2013-05-04 12:02:00,72.3,40.8,30.02,SSW,192,6.9,8.9,32,0.00,,,0.00,954.0,meteobridge,2013-05-04 17:02:00,
2013-05-04 12:03:00,72.1,43.7,30.02,SSW,199,2.0,8.9,36,0.00,,,0.00,958.0,meteobridge,2013-05-04 17:03:00,
2013-05-04 12:05:00,72.5,41.7,30.02,SSE,165,0.9,6.0,33,0.00,,,0.00,965.0,meteobridge,2013-05-04 17:05:00,
2013-05-04 12:06:00,72.7,44.2,30.02,SSE,153,2.0,6.0,36,0.00,,,0.00,965.0,meteobridge,2013-05-04 17:06:00,
2013-05-04 12:07:00,73.0,42.3,30.02,SW,215,0.9,6.9,33,0.00,,,0.00,965.0,meteobridge,2013-05-04 17:07:00,
2013-05-04 12:08:00,73.2,43.9,30.02,ESE,119,2.9,4.9,35,0.00,,,0.00,963.0,meteobridge,2013-05-04 17:08:00,
2013-05-04 12:11:00,73.6,45.0,30.02,WSW,252,0.9,4.0,36,0.00,,,0.00,967.0,meteobridge,2013-05-04 17:11:00,
2013-05-04 12:12:00,73.0,42.3,30.02,South,171,2.9,6.0,33,0.00,,,0.00,970.0,meteobridge,2013-05-04 17:12:00,
2013-05-04 12:13:00,72.9,42.1,30.02,ENE,76,2.9,6.0,33,0.00,,,0.00,970.0,meteobridge,2013-05-04 17:13:00,
2013-05-04 12:14:00,73.0,42.3,30.02,WNW,289,4.9,4.9,33,0.00,,,0.00,970.0,meteobridge,2013-05-04 17:14:00,
2013-05-04 12:16:00,72.3,42.4,30.01,SSW,201,2.9,6.9,34,0.00,,,0.00,972.0,meteobridge,2013-05-04 17:16:00,
2013-05-04 12:18:00,73.0,45.1,30.02,South,186,2.9,4.9,37,0.00,,,0.00,972.0,meteobridge,2013-05-04 17:18:00,
2013-05-04 12:19:00,73.0,40.6,30.02,SW,225,4.0,6.9,31,0.00,,,0.00,976.0,meteobridge,2013-05-04 17:19:00,
2013-05-04 12:21:00,72.9,42.1,30.01,SSW,202,4.0,6.0,33,0.00,,,0.00,976.0,meteobridge,2013-05-04 17:21:00,
2013-05-04 12:23:00,73.0,42.3,30.01,SSE,167,0.0,4.0,33,0.00,,,0.00,972.0,meteobridge,2013-05-04 17:23:00,
2013-05-04 12:25:00,73.2,40.8,30.01,NE,41,0.9,6.9,31,0.00,,,0.00,977.0,meteobridge,2013-05-04 17:25:00,
2013-05-04 12:27:00,73.2,42.4,30.01,South,188,2.9,6.0,33,0.00,,,0.00,979.0,meteobridge,2013-05-04 17:27:00,
2013-05-04 12:28:00,73.6,43.5,30.01,SSW,201,0.0,4.0,34,0.00,,,0.00,977.0,meteobridge,2013-05-04 17:28:00,
2013-05-04 12:31:00,74.8,42.3,30.01,SSE,157,4.9,4.9,31,0.00,,,0.00,983.0,meteobridge,2013-05-04 17:31:00,
2013-05-04 12:32:00,74.5,42.6,30.01,NW,313,4.0,6.0,32,0.00,,,0.00,983.0,meteobridge,2013-05-04 17:32:00,
2013-05-04 12:33:00,74.3,42.6,30.01,WSW,248,0.9,4.9,32,0.00,,,0.00,983.0,meteobridge,2013-05-04 17:33:00,
2013-05-04 12:34:00,74.3,42.6,30.01,SSE,157,4.9,6.9,32,0.00,,,0.00,986.0,meteobridge,2013-05-04 17:34:00,
2013-05-04 12:36:00,74.1,41.5,30.01,SW,223,2.9,6.0,31,0.00,,,0.00,988.0,meteobridge,2013-05-04 17:36:00,
2013-05-04 12:38:00,74.3,41.7,30.01,SW,221,0.0,4.0,31,0.00,,,0.00,988.0,meteobridge,2013-05-04 17:38:00,
2013-05-04 12:39:00,74.5,41.0,30.01,West,271,2.0,11.0,30,0.00,,,0.00,990.0,meteobridge,2013-05-04 17:39:00,
2013-05-04 12:42:00,73.9,42.3,30.01,NW,306,0.0,4.0,32,0.00,,,0.00,990.0,meteobridge,2013-05-04 17:42:00,
2013-05-04 12:43:00,73.9,42.3,30.00,South,180,0.9,2.9,32,0.00,,,0.00,991.0,meteobridge,2013-05-04 17:43:00,
2013-05-04 12:44:00,74.1,43.2,30.00,South,182,2.9,6.9,33,0.00,,,0.00,988.0,meteobridge,2013-05-04 17:44:00,
2013-05-04 12:45:00,73.9,41.4,30.00,SE,136,4.9,6.9,31,0.00,,,0.00,988.0,meteobridge,2013-05-04 17:45:00,
2013-05-04 12:48:00,74.5,42.6,30.00,SSE,156,2.9,10.1,32,0.00,,,0.00,986.0,meteobridge,2013-05-04 17:48:00,
2013-05-04 12:49:00,74.3,42.6,30.00,SSW,193,0.9,10.1,32,0.00,,,0.00,990.0,meteobridge,2013-05-04 17:49:00,
2013-05-04 12:50:00,74.3,41.7,30.00,SSW,200,2.9,6.0,31,0.00,,,0.00,991.0,meteobridge,2013-05-04 17:50:00,
2013-05-04 12:53:00,73.9,42.3,30.00,SSE,164,2.0,6.9,32,0.00,,,0.00,988.0,meteobridge,2013-05-04 17:53:00,
2013-05-04 12:54:00,73.9,41.4,30.00,ESE,119,2.9,6.0,31,0.00,,,0.00,990.0,meteobridge,2013-05-04 17:54:00,
2013-05-04 12:55:00,73.8,41.2,29.99,SW,221,4.0,6.0,31,0.00,,,0.00,988.0,meteobridge,2013-05-04 17:55:00,
2013-05-04 12:58:00,75.0,43.9,29.99,SE,137,4.0,6.0,33,0.00,,,0.00,988.0,meteobridge,2013-05-04 17:58:00,
2013-05-04 12:59:00,75.0,42.3,29.99,SSW,205,4.9,6.9,31,0.00,,,0.00,988.0,meteobridge,2013-05-04 17:59:00,
2013-05-04 13:00:00,75.0,45.5,29.99,SSW,198,0.9,6.9,35,0.00,,,0.00,991.0,meteobridge,2013-05-04 18:00:00,
2013-05-04 13:01:00,75.0,45.5,29.99,SSW,207,4.0,6.9,35,0.00,,,0.00,990.0,meteobridge,2013-05-04 18:01:00,
2013-05-04 13:03:00,75.6,44.4,29.99,SW,223,2.0,4.0,33,0.00,,,0.00,988.0,meteobridge,2013-05-04 18:03:00,
2013-05-04 13:04:00,75.6,45.1,29.99,NW,314,0.9,4.0,34,0.00,,,0.00,988.0,meteobridge,2013-05-04 18:04:00,
2013-05-04 13:06:00,75.2,43.3,29.99,North,0,4.9,10.1,32,0.00,,,0.00,986.0,meteobridge,2013-05-04 18:06:00,
2013-05-04 13:10:00,76.1,43.3,29.98,SE,146,2.0,6.0,31,0.00,,,0.00,986.0,meteobridge,2013-05-04 18:10:00,
2013-05-04 13:11:00,76.1,43.3,29.98,SSE,160,2.9,6.0,31,0.00,,,0.00,986.0,meteobridge,2013-05-04 18:11:00,
2013-05-04 13:12:00,75.7,43.7,29.98,SW,220,0.9,8.1,32,0.00,,,0.00,993.0,meteobridge,2013-05-04 18:12:00,
2013-05-04 13:15:00,76.1,44.1,29.98,East,100,0.0,6.9,32,0.00,,,0.00,988.0,meteobridge,2013-05-04 18:15:00,
2013-05-04 13:16:00,75.9,42.3,29.98,ESE,118,4.9,8.9,30,0.00,,,0.00,986.0,meteobridge,2013-05-04 18:16:00,
2013-05-04 13:17:00,75.7,41.2,29.98,WSW,257,2.0,8.9,29,0.00,,,0.00,986.0,meteobridge,2013-05-04 18:17:00,
2013-05-04 13:19:00,75.6,41.9,29.98,SSW,204,2.9,8.1,30,0.00,,,0.00,986.0,meteobridge,2013-05-04 18:19:00,
2013-05-04 13:20:00,75.6,42.8,29.98,NNW,336,2.0,8.1,31,0.00,,,0.00,984.0,meteobridge,2013-05-04 18:20:00,
2013-05-04 13:21:00,75.6,42.8,29.97,SSW,195,2.9,4.9,31,0.00,,,0.00,983.0,meteobridge,2013-05-04 18:21:00,
2013-05-04 13:22:00,76.3,44.2,29.97,NW,325,2.9,4.9,32,0.00,,,0.00,979.0,meteobridge,2013-05-04 18:22:00,
2013-05-04 13:25:00,77.0,44.1,29.97,West,271,0.9,4.9,31,0.00,,,0.00,984.0,meteobridge,2013-05-04 18:25:00,
2013-05-04 13:26:00,76.8,42.1,29.97,South,186,4.9,6.9,29,0.00,,,0.00,981.0,meteobridge,2013-05-04 18:26:00,
2013-05-04 13:28:00,77.0,41.4,29.97,West,275,2.0,4.9,28,0.00,,,0.00,979.0,meteobridge,2013-05-04 18:28:00,
2013-05-04 13:30:00,76.5,41.9,29.96,SW,217,0.9,6.0,29,0.00,,,0.00,977.0,meteobridge,2013-05-04 18:30:00,
2013-05-04 13:31:00,76.8,43.9,29.97,WNW,282,0.0,4.0,31,0.00,,,0.00,951.0,meteobridge,2013-05-04 18:31:00,
2013-05-04 13:32:00,76.8,43.9,29.97,NW,321,0.9,4.0,31,0.00,,,0.00,951.0,meteobridge,2013-05-04 18:32:00,
2013-05-04 13:34:00,77.2,43.3,29.96,NW,311,2.9,8.9,30,0.00,,,0.00,868.0,meteobridge,2013-05-04 18:34:00,
2013-05-04 13:36:00,76.6,43.7,29.97,SSW,192,2.0,4.9,31,0.00,,,0.00,70.0,meteobridge,2013-05-04 18:36:00,
2013-05-04 13:37:00,76.5,43.5,29.97,NNE,19,2.0,4.9,31,0.00,,,0.00,70.0,meteobridge,2013-05-04 18:37:00,
2013-05-04 13:38:00,76.3,40.8,29.97,ESE,119,4.0,8.9,28,0.00,,,0.00,56.0,meteobridge,2013-05-04 18:38:00,
2013-05-04 13:39:00,75.9,43.9,29.96,SSW,212,0.9,6.9,32,0.00,,,0.00,54.0,meteobridge,2013-05-04 18:39:00,
2013-05-04 13:42:00,76.5,42.8,29.96,SW,225,2.9,4.0,30,0.00,,,0.00,54.0,meteobridge,2013-05-04 18:42:00,
2013-05-04 13:44:00,77.4,42.6,29.96,SE,124,2.9,6.9,29,0.00,,,0.00,54.0,meteobridge,2013-05-04 18:44:00,
2013-05-04 13:45:00,77.4,43.5,29.96,WNW,293,2.0,6.9,30,0.00,,,0.00,54.0,meteobridge,2013-05-04 18:45:00,
2013-05-04 13:47:00,77.7,43.9,29.96,NNW,340,2.0,6.0,30,0.00,,,0.00,54.0,meteobridge,2013-05-04 18:47:00,
2013-05-04 13:49:00,77.4,41.7,29.96,WSW,250,2.0,8.1,28,0.00,,,0.00,72.0,meteobridge,2013-05-04 18:49:00,
2013-05-04 13:51:00,77.2,40.6,29.96,SW,217,2.9,8.1,27,0.00,,,0.00,128.0,meteobridge,2013-05-04 18:51:00,
2013-05-04 13:52:00,77.4,41.7,29.96,SW,218,8.1,8.1,28,0.00,,,0.00,243.0,meteobridge,2013-05-04 18:52:00,
2013-05-04 13:53:00,77.2,41.5,29.96,ENE,76,4.0,8.1,28,0.00,,,0.00,318.0,meteobridge,2013-05-04 18:53:00,
2013-05-04 13:55:00,76.8,40.3,29.96,ENE,60,2.9,6.9,27,0.00,,,0.00,408.0,meteobridge,2013-05-04 18:55:00,
2013-05-04 13:56:00,76.6,41.2,29.96,South,188,6.0,6.0,28,0.00,,,0.00,408.0,meteobridge,2013-05-04 18:56:00,
2013-05-04 13:57:00,76.6,43.7,29.96,NW,305,2.0,6.9,31,0.00,,,0.00,835.0,meteobridge,2013-05-04 18:57:00,
2013-05-04 13:58:00,77.4,42.6,29.95,WSW,239,4.0,6.0,29,0.00,,,0.00,909.0,meteobridge,2013-05-04 18:58:00,
2013-05-04 13:59:00,77.4,42.6,29.95,WSW,255,2.9,6.0,29,0.00,,,0.00,942.0,meteobridge,2013-05-04 18:59:00,
2013-05-04 14:01:00,77.4,41.7,29.95,SSW,210,2.0,10.1,28,0.00,,,0.00,954.0,meteobridge,2013-05-04 19:01:00,
2013-05-04 14:02:00,77.4,41.7,29.95,West,278,2.0,10.1,28,0.00,,,0.00,954.0,meteobridge,2013-05-04 19:02:00,
2013-05-04 14:03:00,77.5,42.8,29.95,North,355,0.9,6.9,29,0.00,,,0.00,953.0,meteobridge,2013-05-04 19:03:00,
2013-05-04 14:04:00,77.7,43.0,29.95,SSW,213,2.9,4.9,29,0.00,,,0.00,954.0,meteobridge,2013-05-04 19:04:00,
2013-05-04 14:05:00,77.7,43.0,29.95,West,279,2.9,6.0,29,0.00,,,0.00,951.0,meteobridge,2013-05-04 19:05:00,
2013-05-04 14:07:00,78.6,44.6,29.95,WNW,288,0.9,4.0,30,0.00,,,0.00,953.0,meteobridge,2013-05-04 19:07:00,
2013-05-04 14:08:00,79.0,44.1,29.95,East,84,0.9,4.0,29,0.00,,,0.00,954.0,meteobridge,2013-05-04 19:08:00,
2013-05-04 14:09:00,79.3,44.2,29.95,WSW,240,4.0,6.9,29,0.00,,,0.00,951.0,meteobridge,2013-05-04 19:09:00,
2013-05-04 14:10:00,79.2,43.2,29.95,South,177,2.9,6.9,28,0.00,,,0.00,951.0,meteobridge,2013-05-04 19:10:00,
2013-05-04 14:12:00,79.3,46.0,29.95,WNW,290,0.9,2.9,31,0.00,,,0.00,947.0,meteobridge,2013-05-04 19:12:00,
2013-05-04 14:13:00,79.2,42.3,29.95,NNE,30,4.0,10.1,27,0.00,,,0.00,949.0,meteobridge,2013-05-04 19:13:00,
2013-05-04 14:14:00,79.0,41.2,29.95,NW,314,2.0,10.1,26,0.00,,,0.00,949.0,meteobridge,2013-05-04 19:14:00,
2013-05-04 14:15:00,78.4,40.6,29.95,West,270,4.0,8.1,26,0.00,,,0.00,949.0,meteobridge,2013-05-04 19:15:00,
2013-05-04 14:18:00,78.4,41.7,29.95,West,263,4.0,4.9,27,0.00,,,0.00,940.0,meteobridge,2013-05-04 19:18:00,
2013-05-04 14:20:00,78.6,42.8,29.95,WNW,296,2.0,4.0,28,0.00,,,0.00,939.0,meteobridge,2013-05-04 19:20:00,
2013-05-04 14:22:00,78.4,41.7,29.95,WSW,252,0.9,6.0,27,0.00,,,0.00,937.0,meteobridge,2013-05-04 19:22:00,
2013-05-04 14:23:00,78.3,41.5,29.95,South,185,2.0,8.1,27,0.00,,,0.00,935.0,meteobridge,2013-05-04 19:23:00,
2013-05-04 14:24:00,78.3,41.5,29.95,SSE,158,2.9,8.1,27,0.00,,,0.00,933.0,meteobridge,2013-05-04 19:24:00,
2013-05-04 14:25:00,78.8,43.9,29.94,SSW,193,2.9,6.9,29,0.00,,,0.00,933.0,meteobridge,2013-05-04 19:25:00,
2013-05-04 14:27:00,78.4,43.5,29.94,West,266,4.0,6.9,29,0.00,,,0.00,933.0,meteobridge,2013-05-04 19:27:00,
2013-05-04 14:29:00,78.4,43.5,29.94,West,263,2.0,4.9,29,0.00,,,0.00,932.0,meteobridge,2013-05-04 19:29:00,
2013-05-04 14:30:00,78.3,42.4,29.94,WNW,302,2.9,10.1,28,0.00,,,0.00,928.0,meteobridge,2013-05-04 19:30:00,
2013-05-04 14:32:00,78.3,44.2,29.94,WSW,248,0.0,6.9,30,0.00,,,0.00,923.0,meteobridge,2013-05-04 19:32:00,
2013-05-04 14:33:00,78.6,42.8,29.94,WNW,291,2.0,2.9,28,0.00,,,0.00,919.0,meteobridge,2013-05-04 19:33:00,
2013-05-04 14:34:00,79.0,44.1,29.94,WSW,250,4.0,6.0,29,0.00,,,0.00,921.0,meteobridge,2013-05-04 19:34:00,
2013-05-04 14:36:00,78.3,40.6,29.94,WSW,244,2.9,4.9,26,0.00,,,0.00,911.0,meteobridge,2013-05-04 19:36:00,
2013-05-04 14:37:00,78.1,42.3,29.94,West,277,2.9,10.1,28,0.00,,,0.00,916.0,meteobridge,2013-05-04 19:37:00,
2013-05-04 14:39:00,77.7,43.0,29.94,WSW,246,0.9,6.0,29,0.00,,,0.00,912.0,meteobridge,2013-05-04 19:39:00,
2013-05-04 14:41:00,79.2,43.2,29.94,ENE,74,0.9,6.0,28,0.00,,,0.00,912.0,meteobridge,2013-05-04 19:41:00,
2013-05-04 14:42:00,79.7,43.7,29.93,NNW,334,2.0,6.0,28,0.00,,,0.00,909.0,meteobridge,2013-05-04 19:42:00,
2013-05-04 14:43:00,80.1,45.9,29.94,SW,232,6.0,6.9,30,0.00,,,0.00,909.0,meteobridge,2013-05-04 19:43:00,
2013-05-04 14:44:00,79.9,43.9,29.94,SSW,197,6.9,8.1,28,0.00,,,0.00,904.0,meteobridge,2013-05-04 19:44:00,
2013-05-04 14:45:00,79.7,42.8,29.94,South,178,4.0,8.1,27,0.00,,,0.00,902.0,meteobridge,2013-05-04 19:45:00,
2013-05-04 14:48:00,79.3,43.3,29.93,SSW,199,0.0,2.9,28,0.00,,,0.00,898.0,meteobridge,2013-05-04 19:48:00,
2013-05-04 14:49:00,79.0,42.1,29.93,WSW,253,2.9,4.0,27,0.00,,,0.00,898.0,meteobridge,2013-05-04 19:49:00,
2013-05-04 14:50:00,78.6,42.8,29.93,SSW,207,4.0,4.0,28,0.00,,,0.00,898.0,meteobridge,2013-05-04 19:50:00,
2013-05-04 14:53:00,79.2,41.4,29.93,WSW,253,4.9,6.0,26,0.00,,,0.00,886.0,meteobridge,2013-05-04 19:53:00,
2013-05-04 14:54:00,79.2,41.4,29.93,SW,226,4.0,6.0,26,0.00,,,0.00,886.0,meteobridge,2013-05-04 19:54:00,
2013-05-04 14:55:00,78.8,42.1,29.93,SE,138,2.9,6.9,27,0.00,,,0.00,884.0,meteobridge,2013-05-04 19:55:00,
2013-05-04 14:56:00,79.0,44.1,29.93,North,355,2.0,2.9,29,0.00,,,0.00,882.0,meteobridge,2013-05-04 19:56:00,
2013-05-04 14:57:00,79.3,44.2,29.93,South,171,2.0,4.9,29,0.00,,,0.00,882.0,meteobridge,2013-05-04 19:57:00,
2013-05-04 14:59:00,80.1,45.9,29.93,SE,136,4.0,6.0,30,0.00,,,0.00,881.0,meteobridge,2013-05-04 19:59:00,
2013-05-04 15:00:00,79.5,43.5,29.92,SW,227,2.9,6.0,28,0.00,,,0.00,875.0,meteobridge,2013-05-04 20:00:00,
2013-05-04 15:03:00,79.7,46.4,29.92,SW,234,2.0,4.9,31,0.00,,,0.00,872.0,meteobridge,2013-05-04 20:03:00,
2013-05-04 15:04:00,80.1,46.8,29.92,SSE,155,2.9,6.0,31,0.00,,,0.00,868.0,meteobridge,2013-05-04 20:04:00,
2013-05-04 15:07:00,79.9,45.7,29.92,North,5,6.0,6.9,30,0.00,,,0.00,861.0,meteobridge,2013-05-04 20:07:00,
2013-05-04 15:09:00,80.2,44.2,29.92,ESE,119,2.0,4.9,28,0.00,,,0.00,854.0,meteobridge,2013-05-04 20:09:00,
2013-05-04 15:10:00,80.2,44.2,29.92,SE,130,0.9,2.0,28,0.00,,,0.00,854.0,meteobridge,2013-05-04 20:10:00,
2013-05-04 15:12:00,79.9,43.0,29.92,South,188,2.0,4.9,27,0.00,,,0.00,853.0,meteobridge,2013-05-04 20:12:00,
2013-05-04 15:14:00,79.3,44.2,29.92,SSE,155,2.0,4.0,29,0.00,,,0.00,849.0,meteobridge,2013-05-04 20:14:00,
2013-05-04 15:15:00,79.3,45.1,29.91,West,278,2.0,4.9,30,0.00,,,0.00,849.0,meteobridge,2013-05-04 20:15:00,
2013-05-04 15:17:00,79.7,44.6,29.92,NW,307,0.9,8.1,29,0.00,,,0.00,844.0,meteobridge,2013-05-04 20:17:00,
2013-05-04 15:20:00,80.8,45.5,29.92,SSW,208,2.9,4.9,29,0.00,,,0.00,837.0,meteobridge,2013-05-04 20:20:00,
2013-05-04 15:21:00,80.8,41.7,29.91,West,267,4.9,8.9,25,0.00,,,0.00,835.0,meteobridge,2013-05-04 20:21:00,
2013-05-04 15:22:00,80.1,41.0,29.91,SE,128,2.9,8.9,25,0.00,,,0.00,831.0,meteobridge,2013-05-04 20:22:00,
2013-05-04 15:25:00,80.2,43.2,29.91,WNW,297,0.0,4.0,27,0.00,,,0.00,747.0,meteobridge,2013-05-04 20:25:00,
2013-05-04 15:26:00,80.4,44.2,29.91,NNW,329,2.9,4.9,28,0.00,,,0.00,747.0,meteobridge,2013-05-04 20:26:00,
2013-05-04 15:27:00,80.8,41.7,29.91,WSW,247,2.9,6.0,25,0.00,,,0.00,810.0,meteobridge,2013-05-04 20:27:00,
2013-05-04 15:28:00,80.8,42.6,29.91,ENE,64,0.0,6.0,26,0.00,,,0.00,819.0,meteobridge,2013-05-04 20:28:00,
2013-05-04 15:31:00,80.2,43.2,29.91,WSW,249,0.9,4.0,27,0.00,,,0.00,812.0,meteobridge,2013-05-04 20:31:00,
2013-05-04 15:32:00,80.4,44.2,29.91,WSW,250,0.0,4.0,28,0.00,,,0.00,812.0,meteobridge,2013-05-04 20:32:00,
2013-05-04 15:33:00,80.8,42.6,29.91,WNW,292,4.9,6.9,26,0.00,,,0.00,805.0,meteobridge,2013-05-04 20:33:00,
2013-05-04 15:37:00,79.7,42.8,29.91,NW,314,0.9,6.0,27,0.00,,,0.00,793.0,meteobridge,2013-05-04 20:37:00,
2013-05-04 15:38:00,79.7,42.8,29.91,NW,325,0.9,6.0,27,0.00,,,0.00,775.0,meteobridge,2013-05-04 20:38:00,
2013-05-04 15:39:00,79.5,41.5,29.90,WNW,283,4.0,6.0,26,0.00,,,0.00,796.0,meteobridge,2013-05-04 20:39:00,
2013-05-04 15:43:00,79.5,41.5,29.90,North,5,0.9,2.9,26,0.00,,,0.00,784.0,meteobridge,2013-05-04 20:43:00,
2013-05-04 15:45:00,80.1,41.0,29.90,WNW,285,4.9,13.0,25,0.00,,,0.00,740.0,meteobridge,2013-05-04 20:45:00,
2013-05-04 15:48:00,79.9,43.0,29.90,SW,231,4.0,6.0,27,0.00,,,0.00,728.0,meteobridge,2013-05-04 20:48:00,
2013-05-04 15:49:00,79.5,41.5,29.90,SE,134,4.9,11.0,26,0.00,,,0.00,758.0,meteobridge,2013-05-04 20:49:00,
2013-05-04 15:50:00,79.5,42.6,29.90,ESE,107,2.0,6.9,27,0.00,,,0.00,763.0,meteobridge,2013-05-04 20:50:00,
2013-05-04 15:53:00,78.8,41.0,29.89,North,9,2.0,6.0,26,0.00,,,0.00,763.0,meteobridge,2013-05-04 20:53:00,
2013-05-04 15:54:00,78.6,41.9,29.90,North,5,2.9,6.0,27,0.00,,,0.00,763.0,meteobridge,2013-05-04 20:54:00,
2013-05-04 15:55:00,78.6,41.9,29.89,NE,42,0.9,2.9,27,0.00,,,0.00,763.0,meteobridge,2013-05-04 20:55:00,
2013-05-04 15:59:00,78.4,40.6,29.89,SW,224,0.9,6.0,26,0.00,,,0.00,88.0,meteobridge,2013-05-04 20:59:00,
2013-05-04 16:00:00,78.6,42.8,29.89,NW,322,2.0,2.9,28,0.00,,,0.00,81.0,meteobridge,2013-05-04 21:00:00,
2013-05-04 16:01:00,79.0,43.2,29.89,NW,322,0.0,2.9,28,0.00,,,0.00,104.0,meteobridge,2013-05-04 21:01:00,
2013-05-04 16:05:00,79.3,43.3,29.89,SSW,211,4.0,8.1,28,0.00,,,0.00,155.0,meteobridge,2013-05-04 21:05:00,
2013-05-04 16:06:00,79.3,42.4,29.89,SW,223,0.9,6.9,27,0.00,,,0.00,102.0,meteobridge,2013-05-04 21:06:00,
2013-05-04 16:07:00,79.3,42.4,29.89,SW,222,0.9,6.9,27,0.00,,,0.00,102.0,meteobridge,2013-05-04 21:07:00,
2013-05-04 16:10:00,79.2,43.2,29.88,West,265,2.0,6.0,28,0.00,,,0.00,107.0,meteobridge,2013-05-04 21:10:00,
2013-05-04 16:11:00,79.2,43.2,29.88,SW,232,2.0,6.0,28,0.00,,,0.00,127.0,meteobridge,2013-05-04 21:11:00,
2013-05-04 16:12:00,79.3,44.2,29.88,South,190,2.0,2.9,29,0.00,,,0.00,156.0,meteobridge,2013-05-04 21:12:00,
2013-05-04 16:15:00,79.5,42.6,29.88,East,100,0.9,8.9,27,0.00,,,0.00,155.0,meteobridge,2013-05-04 21:15:00,
2013-05-04 16:16:00,79.5,42.6,29.88,ENE,71,0.9,4.9,27,0.00,,,0.00,485.0,meteobridge,2013-05-04 21:16:00,
2013-05-04 16:17:00,79.7,44.6,29.88,South,180,0.9,4.0,29,0.00,,,0.00,485.0,meteobridge,2013-05-04 21:17:00,
2013-05-04 16:18:00,80.1,45.0,29.88,SW,217,0.0,2.9,29,0.00,,,0.00,403.0,meteobridge,2013-05-04 21:18:00,
2013-05-04 16:21:00,80.1,43.0,29.88,SW,229,0.0,6.9,27,0.00,,,0.00,605.0,meteobridge,2013-05-04 21:21:00,
2013-05-04 16:22:00,79.9,41.9,29.88,SSW,199,2.9,8.1,26,0.00,,,0.00,605.0,meteobridge,2013-05-04 21:22:00,
2013-05-04 16:23:00,79.5,41.5,29.88,SSE,155,2.9,8.1,26,0.00,,,0.00,605.0,meteobridge,2013-05-04 21:23:00,
2013-05-04 16:24:00,79.3,40.5,29.88,South,172,6.0,11.0,25,0.00,,,0.00,605.0,meteobridge,2013-05-04 21:24:00,
2013-05-04 16:26:00,79.0,41.2,29.88,West,281,4.0,11.0,26,0.00,,,0.00,605.0,meteobridge,2013-05-04 21:26:00,
2013-05-04 16:28:00,78.8,39.9,29.88,South,186,2.0,6.9,25,0.00,,,0.00,100.0,meteobridge,2013-05-04 21:28:00,
2013-05-04 16:29:00,78.6,41.9,29.88,WSW,247,6.0,6.0,27,0.00,,,0.00,118.0,meteobridge,2013-05-04 21:29:00,
2013-05-04 16:30:00,78.8,43.9,29.88,SE,139,2.9,6.0,29,0.00,,,0.00,90.0,meteobridge,2013-05-04 21:30:00,
2013-05-04 16:32:00,79.2,41.4,29.87,South,188,2.9,6.0,26,0.00,,,0.00,190.0,meteobridge,2013-05-04 21:32:00,
2013-05-04 16:33:00,79.2,41.4,29.88,West,269,2.9,6.0,26,0.00,,,0.00,190.0,meteobridge,2013-05-04 21:33:00,
2013-05-04 16:34:00,79.3,42.4,29.88,NW,317,4.0,6.9,27,0.00,,,0.00,287.0,meteobridge,2013-05-04 21:34:00,
2013-05-04 16:35:00,79.9,43.9,29.87,SSW,198,0.0,6.0,28,0.00,,,0.00,102.0,meteobridge,2013-05-04 21:35:00,
2013-05-04 16:37:00,80.2,42.3,29.88,WSW,254,0.0,2.9,26,0.00,,,0.00,367.0,meteobridge,2013-05-04 21:37:00,
2013-05-04 16:38:00,80.2,43.2,29.87,SE,125,0.0,4.0,27,0.00,,,0.00,367.0,meteobridge,2013-05-04 21:38:00,
2013-05-04 16:39:00,80.4,43.3,29.88,West,269,4.9,6.0,27,0.00,,,0.00,369.0,meteobridge,2013-05-04 21:39:00,
2013-05-04 16:42:00,80.2,42.3,29.87,SE,124,0.0,4.9,26,0.00,,,0.00,171.0,meteobridge,2013-05-04 21:42:00,
2013-05-04 16:43:00,80.2,43.2,29.87,SE,134,0.0,2.0,27,0.00,,,0.00,239.0,meteobridge,2013-05-04 21:43:00,
2013-05-04 16:44:00,80.4,42.4,29.87,SE,134,0.0,2.0,26,0.00,,,0.00,239.0,meteobridge,2013-05-04 21:44:00,
2013-05-04 16:46:00,80.6,41.5,29.87,WNW,293,2.9,6.9,25,0.00,,,0.00,536.0,meteobridge,2013-05-04 21:46:00,
2013-05-04 16:47:00,80.2,40.1,29.87,WNW,287,2.9,6.9,24,0.00,,,0.00,459.0,meteobridge,2013-05-04 21:47:00,
2013-05-04 16:50:00,80.4,43.3,29.87,NW,306,2.9,6.0,27,0.00,,,0.00,93.0,meteobridge,2013-05-04 21:50:00,
2013-05-04 16:56:00,81.0,41.9,29.87,WSW,250,2.9,2.9,25,-99.99,,,-99.99,557.0,meteobridge,2013-05-04 21:56:00,
2013-05-04 17:01:00,81.0,40.8,29.87,North,5,2.0,6.0,24,0.00,,,0.00,548.0,meteobridge,2013-05-04 22:01:00,
2013-05-04 17:02:00,81.0,40.8,29.87,NNW,339,0.9,6.0,24,0.00,,,0.00,547.0,meteobridge,2013-05-04 22:02:00,
2013-05-04 17:07:00,81.1,41.9,29.87,South,191,0.9,8.1,25,0.00,,,0.00,527.0,meteobridge,2013-05-04 22:07:00,
2013-05-04 17:08:00,81.3,43.2,29.87,North,5,0.0,6.9,26,0.00,,,0.00,527.0,meteobridge,2013-05-04 22:08:00,
2013-05-04 17:12:00,80.8,41.7,29.87,WNW,286,0.9,6.0,25,0.00,,,0.00,513.0,meteobridge,2013-05-04 22:12:00,
2013-05-04 17:13:00,81.0,41.9,29.87,NNW,338,0.9,6.0,25,0.00,,,0.00,513.0,meteobridge,2013-05-04 22:13:00,
2013-05-04 17:14:00,81.0,41.9,29.88,West,277,2.0,4.9,25,0.00,,,0.00,510.0,meteobridge,2013-05-04 22:14:00,
2013-05-04 17:17:00,81.1,41.9,29.87,North,5,8.1,10.1,25,0.00,,,0.00,499.0,meteobridge,2013-05-04 22:17:00,
2013-05-04 17:18:00,81.1,41.9,29.87,North,11,0.9,10.1,25,0.00,,,0.00,485.0,meteobridge,2013-05-04 22:18:00,
2013-05-04 17:19:00,81.1,41.9,29.87,NW,310,0.9,10.1,25,0.00,,,0.00,468.0,meteobridge,2013-05-04 22:19:00,
2013-05-04 17:22:00,80.8,41.7,29.87,NNW,335,2.9,6.0,25,0.00,,,0.00,485.0,meteobridge,2013-05-04 22:22:00,
2013-05-04 17:24:00,80.4,41.4,29.87,WNW,287,0.9,6.0,25,0.00,,,0.00,478.0,meteobridge,2013-05-04 22:24:00,
2013-05-04 17:28:00,80.6,42.6,29.87,West,275,4.9,6.9,26,0.00,,,0.00,455.0,meteobridge,2013-05-04 22:28:00,
2013-05-04 17:29:00,80.4,40.3,29.87,WNW,283,2.0,16.1,24,0.00,,,0.00,448.0,meteobridge,2013-05-04 22:29:00,
2013-05-04 17:30:00,80.4,41.4,29.87,NW,321,4.0,16.1,25,0.00,,,0.00,448.0,meteobridge,2013-05-04 22:30:00,
2013-05-04 17:33:00,79.7,41.7,29.87,WSW,244,0.9,12.1,26,0.00,,,0.00,438.0,meteobridge,2013-05-04 22:33:00,
2013-05-04 17:35:00,80.1,43.0,29.87,West,272,2.0,6.9,27,0.00,,,0.00,427.0,meteobridge,2013-05-04 22:35:00,
2013-05-04 17:36:00,80.2,41.2,29.87,WNW,284,2.9,6.0,25,0.00,,,0.00,429.0,meteobridge,2013-05-04 22:36:00,
2013-05-04 17:38:00,80.4,42.4,29.87,SW,224,0.0,4.0,26,0.00,,,0.00,418.0,meteobridge,2013-05-04 22:38:00,
2013-05-04 17:39:00,80.4,42.4,29.87,WSW,257,4.0,4.9,26,0.00,,,0.00,418.0,meteobridge,2013-05-04 22:39:00,
2013-05-04 17:40:00,79.9,39.9,29.87,WSW,244,0.0,6.0,24,0.00,,,0.00,411.0,meteobridge,2013-05-04 22:40:00,
2013-05-04 17:41:00,79.9,41.9,29.87,WSW,244,0.0,6.0,26,0.00,,,0.00,411.0,meteobridge,2013-05-04 22:41:00,
2013-05-04 17:42:00,79.9,41.9,29.87,WSW,244,0.9,2.9,26,0.00,,,0.00,403.0,meteobridge,2013-05-04 22:42:00,
2013-05-04 17:43:00,79.5,41.5,29.87,WNW,286,2.0,6.0,26,0.00,,,0.00,401.0,meteobridge,2013-05-04 22:43:00,
2013-05-04 17:44:00,79.7,41.7,29.87,NW,325,2.0,6.0,26,0.00,,,0.00,401.0,meteobridge,2013-05-04 22:44:00,
2013-05-04 17:46:00,80.1,43.0,29.87,WSW,247,0.0,6.0,27,0.00,,,0.00,397.0,meteobridge,2013-05-04 22:46:00,
2013-05-04 17:48:00,80.1,42.1,29.87,North,11,6.0,11.0,26,0.00,,,0.00,387.0,meteobridge,2013-05-04 22:48:00,
2013-05-04 17:49:00,80.1,42.1,29.87,West,271,6.0,11.0,26,0.00,,,0.00,383.0,meteobridge,2013-05-04 22:49:00,
2013-05-04 17:51:00,79.9,41.9,29.87,West,281,4.0,6.0,26,0.00,,,0.00,378.0,meteobridge,2013-05-04 22:51:00,
2013-05-04 17:52:00,79.7,41.7,29.87,West,259,4.0,6.0,26,0.00,,,0.00,371.0,meteobridge,2013-05-04 22:52:00,
2013-05-04 17:53:00,79.5,41.5,29.87,WSW,253,0.0,8.9,26,0.00,,,0.00,366.0,meteobridge,2013-05-04 22:53:00,
2013-05-04 17:54:00,79.5,41.5,29.87,NNE,17,0.9,8.9,26,0.00,,,0.00,364.0,meteobridge,2013-05-04 22:54:00,
2013-05-04 17:57:00,79.9,41.9,29.87,SW,236,2.9,4.9,26,0.00,,,0.00,352.0,meteobridge,2013-05-04 22:57:00,
2013-05-04 17:59:00,79.9,43.0,29.87,WNW,282,2.9,4.9,27,0.00,,,0.00,343.0,meteobridge,2013-05-04 22:59:00,
2013-05-04 18:02:00,79.9,41.0,29.87,SW,218,4.9,10.1,25,0.00,,,0.00,330.0,meteobridge,2013-05-04 23:02:00,
2013-05-04 18:04:00,79.3,41.5,29.87,NW,306,2.0,10.1,26,0.00,,,0.00,325.0,meteobridge,2013-05-04 23:04:00,
2013-05-04 18:05:00,79.3,41.5,29.87,WNW,286,2.0,6.0,26,0.00,,,0.00,323.0,meteobridge,2013-05-04 23:05:00,
2013-05-04 18:08:00,79.7,42.8,29.87,NNW,340,0.9,4.0,27,0.00,,,0.00,283.0,meteobridge,2013-05-04 23:08:00,
2013-05-04 18:10:00,79.5,41.5,29.87,NNW,347,0.9,4.9,26,0.00,,,0.00,225.0,meteobridge,2013-05-04 23:10:00,
2013-05-04 18:11:00,79.5,41.5,29.87,West,277,2.0,4.0,26,0.00,,,0.00,144.0,meteobridge,2013-05-04 23:11:00,
2013-05-04 18:13:00,79.2,41.4,29.87,NW,325,2.9,6.0,26,0.00,,,0.00,178.0,meteobridge,2013-05-04 23:13:00,
2013-05-04 18:15:00,78.6,41.9,29.87,NW,323,0.0,2.9,27,0.00,,,0.00,86.0,meteobridge,2013-05-04 23:15:00,
2013-05-04 18:16:00,78.6,43.7,29.87,NW,323,0.9,0.9,29,0.00,,,0.00,90.0,meteobridge,2013-05-04 23:16:00,
2013-05-04 18:17:00,78.6,43.7,29.87,NW,312,0.0,8.1,29,0.00,,,0.00,158.0,meteobridge,2013-05-04 23:17:00,
2013-05-04 18:20:00,78.4,42.6,29.87,NW,312,0.0,2.0,28,0.00,,,0.00,60.0,meteobridge,2013-05-04 23:20:00,
2013-05-04 18:21:00,78.6,42.8,29.87,West,275,0.0,2.9,28,0.00,,,0.00,62.0,meteobridge,2013-05-04 23:21:00,
2013-05-04 18:22:00,78.4,42.6,29.87,SW,227,0.9,2.9,28,0.00,,,0.00,62.0,meteobridge,2013-05-04 23:22:00,
2013-05-04 18:25:00,78.1,43.2,29.87,West,268,2.9,8.1,29,0.00,,,0.00,116.0,meteobridge,2013-05-04 23:25:00,
2013-05-04 18:26:00,77.7,42.1,29.87,WNW,285,2.0,4.0,28,0.00,,,0.00,123.0,meteobridge,2013-05-04 23:26:00,
2013-05-04 18:27:00,77.7,43.0,29.87,NNE,18,0.0,4.0,29,0.00,,,0.00,125.0,meteobridge,2013-05-04 23:27:00,
2013-05-04 18:28:00,77.7,43.0,29.87,NNE,18,0.9,2.9,29,0.00,,,0.00,120.0,meteobridge,2013-05-04 23:28:00,
2013-05-04 18:31:00,77.7,42.1,29.87,NNW,331,8.1,8.1,28,0.00,,,0.00,83.0,meteobridge,2013-05-04 23:31:00,
2013-05-04 18:32:00,77.5,41.0,29.87,WNW,295,0.9,8.1,27,0.00,,,0.00,58.0,meteobridge,2013-05-04 23:32:00,
2013-05-04 18:33:00,77.5,41.0,29.87,WNW,295,0.0,8.1,27,0.00,,,0.00,47.0,meteobridge,2013-05-04 23:33:00,
2013-05-04 18:36:00,77.5,41.9,29.87,WNW,285,0.9,4.0,28,0.00,,,0.00,46.0,meteobridge,2013-05-04 23:36:00,
2013-05-04 18:38:00,77.5,41.0,29.87,NW,304,2.0,2.9,27,0.00,,,0.00,53.0,meteobridge,2013-05-04 23:38:00,
2013-05-04 18:39:00,77.5,41.0,29.87,WNW,299,0.0,2.9,27,0.00,,,0.00,47.0,meteobridge,2013-05-04 23:39:00,
2013-05-04 18:42:00,77.5,41.0,29.87,NW,304,2.0,2.9,27,0.00,,,0.00,51.0,meteobridge,2013-05-04 23:42:00,
2013-05-04 18:44:00,77.4,41.7,29.87,NW,304,0.0,2.0,28,0.00,,,0.00,63.0,meteobridge,2013-05-04 23:44:00,
2013-05-04 18:46:00,77.4,41.7,29.87,WNW,284,0.9,6.9,28,0.00,,,0.00,69.0,meteobridge,2013-05-04 23:46:00,
2013-05-04 18:48:00,77.4,41.7,29.87,WNW,284,0.0,4.0,28,0.00,,,0.00,67.0,meteobridge,2013-05-04 23:48:00,
2013-05-04 18:49:00,77.2,42.4,29.87,NW,314,0.9,0.9,29,0.00,,,0.00,76.0,meteobridge,2013-05-04 23:49:00,
2013-05-04 18:52:00,76.8,41.2,29.87,West,278,2.9,6.0,28,0.00,,,0.00,132.0,meteobridge,2013-05-04 23:52:00,
2013-05-04 18:53:00,76.8,41.2,29.87,NNW,342,4.9,6.9,28,0.00,,,0.00,137.0,meteobridge,2013-05-04 23:53:00,
2013-05-04 18:55:00,76.8,40.3,29.87,West,265,2.0,6.9,27,0.00,,,0.00,135.0,meteobridge,2013-05-04 23:55:00,
2013-05-04 18:57:00,76.8,41.2,29.87,North,5,0.0,4.0,28,0.00,,,0.00,118.0,meteobridge,2013-05-04 23:57:00,
2013-05-04 18:58:00,76.8,42.1,29.87,North,5,2.0,2.0,29,0.00,,,0.00,111.0,meteobridge,2013-05-04 23:58:00,
2013-05-04 19:00:00,76.6,42.1,29.87,West,275,2.0,2.9,29,0.00,,,0.00,118.0,meteobridge,2013-05-05 00:00:00,
2013-05-04 19:01:00,76.6,42.1,29.87,WNW,291,0.0,2.9,29,0.00,,,0.00,116.0,meteobridge,2013-05-05 00:01:00,
2013-05-04 19:02:00,76.5,41.9,29.87,West,268,0.9,6.0,29,0.00,,,0.00,62.0,meteobridge,2013-05-05 00:02:00,
2013-05-04 19:03:00,76.5,41.9,29.87,West,268,2.0,6.0,29,0.00,,,0.00,42.0,meteobridge,2013-05-05 00:03:00,
2013-05-04 19:06:00,75.7,43.0,29.87,West,268,0.0,0.9,31,0.00,,,0.00,49.0,meteobridge,2013-05-05 00:06:00,
2013-05-04 19:07:00,75.7,43.0,29.87,West,268,0.0,0.9,31,0.00,,,0.00,49.0,meteobridge,2013-05-05 00:07:00,
2013-05-04 19:08:00,75.6,44.4,29.88,West,268,0.0,0.9,33,0.00,,,0.00,53.0,meteobridge,2013-05-05 00:08:00,
2013-05-04 19:11:00,74.5,45.0,29.88,West,268,0.0,0.9,35,0.00,,,0.00,47.0,meteobridge,2013-05-05 00:11:00,
2013-05-04 19:12:00,74.1,44.8,29.88,West,275,2.0,2.0,35,0.00,,,0.00,47.0,meteobridge,2013-05-05 00:12:00,
2013-05-04 19:13:00,73.9,43.0,29.88,West,275,0.0,2.0,33,0.00,,,0.00,35.0,meteobridge,2013-05-05 00:13:00,
2013-05-04 19:17:00,73.8,45.1,29.88,West,275,0.0,0.0,36,0.00,,,0.00,28.0,meteobridge,2013-05-05 00:17:00,
2013-05-04 19:18:00,73.6,45.0,29.88,West,275,0.0,0.0,36,0.00,,,0.00,26.0,meteobridge,2013-05-05 00:18:00,
2013-05-04 19:19:00,73.2,43.2,29.88,West,275,0.0,0.9,34,0.00,,,0.00,26.0,meteobridge,2013-05-05 00:19:00,
2013-05-04 19:22:00,72.5,44.8,29.88,West,275,0.0,0.0,37,0.00,,,0.00,21.0,meteobridge,2013-05-05 00:22:00,
2013-05-04 19:23:00,72.0,46.4,29.88,West,275,0.0,0.0,40,0.00,,,0.00,21.0,meteobridge,2013-05-05 00:23:00,
2013-05-04 19:24:00,72.0,44.2,29.88,West,275,0.0,2.0,37,0.00,,,0.00,21.0,meteobridge,2013-05-05 00:24:00,
2013-05-04 19:26:00,71.4,46.6,29.88,West,275,0.0,0.0,41,0.00,,,0.00,19.0,meteobridge,2013-05-05 00:26:00,
2013-05-04 19:28:00,71.1,46.2,29.88,West,275,0.0,0.0,41,0.00,,,0.00,18.0,meteobridge,2013-05-05 00:28:00,
2013-05-04 19:29:00,70.9,46.6,29.88,West,275,0.0,0.0,42,0.00,,,0.00,18.0,meteobridge,2013-05-05 00:29:00,
2013-05-04 19:30:00,70.9,47.8,29.88,West,275,0.0,0.0,44,0.00,,,0.00,16.0,meteobridge,2013-05-05 00:30:00,
2013-05-04 19:32:00,70.2,46.6,29.88,West,275,0.0,0.0,43,0.00,,,0.00,16.0,meteobridge,2013-05-05 00:32:00,
2013-05-04 19:33:00,70.0,47.1,29.88,West,275,0.0,0.0,44,0.00,,,0.00,14.0,meteobridge,2013-05-05 00:33:00,
2013-05-04 19:34:00,69.6,47.3,29.88,West,275,0.0,0.0,45,0.00,,,0.00,14.0,meteobridge,2013-05-05 00:34:00,
2013-05-04 19:35:00,69.6,47.3,29.88,West,275,0.0,0.0,45,0.00,,,0.00,14.0,meteobridge,2013-05-05 00:35:00,
2013-05-04 19:39:00,68.7,48.2,29.89,West,275,0.0,0.0,48,0.00,,,0.00,12.0,meteobridge,2013-05-05 00:39:00,
2013-05-04 19:40:00,68.4,47.8,29.88,West,275,0.0,0.0,48,0.00,,,0.00,11.0,meteobridge,2013-05-05 00:40:00,
2013-05-04 19:46:00,67.5,48.2,29.89,West,275,0.0,0.0,50,0.00,,,0.00,9.0,meteobridge,2013-05-05 00:46:00,
2013-05-04 19:47:00,67.1,46.2,29.89,West,275,0.0,0.9,47,0.00,,,0.00,7.0,meteobridge,2013-05-05 00:47:00,
2013-05-04 19:51:00,66.6,48.4,29.89,West,275,0.0,0.0,52,0.00,,,0.00,5.0,meteobridge,2013-05-05 00:51:00,
2013-05-04 19:52:00,66.4,48.2,29.89,West,275,0.0,0.0,52,0.00,,,0.00,5.0,meteobridge,2013-05-05 00:52:00,
2013-05-04 19:53:00,66.4,48.2,29.89,West,275,0.0,0.0,52,0.00,,,0.00,5.0,meteobridge,2013-05-05 00:53:00,
2013-05-04 19:57:00,65.7,48.6,29.90,West,275,0.0,0.0,54,0.00,,,0.00,0.0,meteobridge,2013-05-05 00:57:00,
2013-05-04 19:58:00,65.7,48.6,29.90,West,275,0.0,0.0,54,0.00,,,0.00,0.0,meteobridge,2013-05-05 00:58:00,
2013-05-04 19:59:00,65.5,48.4,29.90,West,275,0.0,0.0,54,0.00,,,0.00,0.0,meteobridge,2013-05-05 00:59:00,
2013-05-04 20:02:00,64.9,48.4,29.90,West,275,0.0,0.0,55,0.00,,,0.00,0.0,meteobridge,2013-05-05 01:02:00,
2013-05-04 20:03:00,64.8,48.2,29.90,West,275,0.0,0.0,55,0.00,,,0.00,0.0,meteobridge,2013-05-05 01:03:00,
2013-05-04 20:04:00,64.8,48.2,29.90,West,275,0.0,0.0,55,0.00,,,0.00,0.0,meteobridge,2013-05-05 01:04:00,
2013-05-04 20:06:00,64.6,48.6,29.90,West,275,0.0,0.0,56,0.00,,,0.00,0.0,meteobridge,2013-05-05 01:06:00,
2013-05-04 20:08:00,64.0,48.0,29.90,West,275,0.0,0.0,56,0.00,,,0.00,0.0,meteobridge,2013-05-05 01:08:00,
2013-05-04 20:09:00,64.0,48.0,29.90,West,275,0.0,0.0,56,0.00,,,0.00,0.0,meteobridge,2013-05-05 01:09:00,
2013-05-04 20:10:00,63.9,48.4,29.90,West,275,0.0,0.0,57,0.00,,,0.00,0.0,meteobridge,2013-05-05 01:10:00,
2013-05-04 20:11:00,63.7,48.2,29.90,West,275,0.0,0.0,57,0.00,,,0.00,0.0,meteobridge,2013-05-05 01:11:00,
2013-05-04 20:13:00,63.3,47.8,29.90,West,275,0.0,0.0,57,0.00,,,0.00,0.0,meteobridge,2013-05-05 01:13:00,
2013-05-04 20:14:00,63.1,47.7,29.90,West,275,0.0,0.0,57,0.00,,,0.00,0.0,meteobridge,2013-05-05 01:14:00,
2013-05-04 20:16:00,63.1,48.2,29.90,West,275,0.0,0.0,58,0.00,,,0.00,0.0,meteobridge,2013-05-05 01:16:00,
2013-05-04 20:18:00,62.8,48.2,29.90,West,275,0.0,0.0,59,0.00,,,0.00,0.0,meteobridge,2013-05-05 01:18:00,
2013-05-04 20:19:00,62.8,48.2,29.90,West,275,0.0,0.0,59,0.00,,,0.00,0.0,meteobridge,2013-05-05 01:19:00,
2013-05-04 20:20:00,62.8,48.2,29.90,West,275,0.0,0.0,59,0.00,,,0.00,0.0,meteobridge,2013-05-05 01:20:00,
2013-05-04 20:21:00,62.6,48.0,29.91,West,275,0.0,0.0,59,0.00,,,0.00,0.0,meteobridge,2013-05-05 01:21:00,
2013-05-04 20:24:00,62.2,48.2,29.91,West,275,0.0,0.0,60,0.00,,,0.00,0.0,meteobridge,2013-05-05 01:24:00,
2013-05-04 20:25:00,62.1,48.0,29.91,West,275,0.0,0.0,60,0.00,,,0.00,0.0,meteobridge,2013-05-05 01:25:00,
2013-05-04 20:26:00,62.1,48.4,29.91,West,275,0.0,0.0,61,0.00,,,0.00,0.0,meteobridge,2013-05-05 01:26:00,
2013-05-04 20:27:00,62.1,48.0,29.91,West,275,0.0,0.0,60,0.00,,,0.00,0.0,meteobridge,2013-05-05 01:27:00,
2013-05-04 20:28:00,61.9,48.2,29.91,West,275,0.0,0.0,61,0.00,,,0.00,0.0,meteobridge,2013-05-05 01:28:00,
2013-05-04 20:29:00,61.5,48.4,29.91,West,275,0.0,0.0,62,0.00,,,0.00,0.0,meteobridge,2013-05-05 01:29:00,
2013-05-04 20:31:00,61.3,47.8,29.91,West,275,0.0,0.0,61,0.00,,,0.00,0.0,meteobridge,2013-05-05 01:31:00,
2013-05-04 20:32:00,61.3,47.8,29.91,West,275,0.0,0.0,61,0.00,,,0.00,0.0,meteobridge,2013-05-05 01:32:00,
2013-05-04 20:34:00,61.2,47.7,29.91,West,275,0.0,0.0,61,0.00,,,0.00,0.0,meteobridge,2013-05-05 01:34:00,
2013-05-04 20:35:00,61.2,47.7,29.91,West,275,0.0,0.0,61,0.00,,,0.00,0.0,meteobridge,2013-05-05 01:35:00,
2013-05-04 20:37:00,61.0,47.8,29.91,West,275,0.0,0.0,62,0.00,,,0.00,0.0,meteobridge,2013-05-05 01:37:00,
2013-05-04 20:38:00,60.8,48.2,29.91,West,275,0.0,0.0,63,0.00,,,0.00,0.0,meteobridge,2013-05-05 01:38:00,
2013-05-04 20:40:00,60.4,48.2,29.91,West,275,0.0,0.0,64,0.00,,,0.00,0.0,meteobridge,2013-05-05 01:40:00,
2013-05-04 20:42:00,60.3,48.0,29.91,West,275,0.0,0.0,64,0.00,,,0.00,0.0,meteobridge,2013-05-05 01:42:00,
2013-05-04 20:43:00,60.3,48.4,29.91,West,275,0.0,0.0,65,0.00,,,0.00,0.0,meteobridge,2013-05-05 01:43:00,
2013-05-04 20:44:00,60.1,48.2,29.91,West,275,0.0,0.0,65,0.00,,,0.00,0.0,meteobridge,2013-05-05 01:44:00,
2013-05-04 20:46:00,59.9,48.6,29.92,West,275,0.0,0.0,66,0.00,,,0.00,0.0,meteobridge,2013-05-05 01:46:00,
2013-05-04 20:47:00,59.7,48.4,29.92,West,275,0.0,0.0,66,0.00,,,0.00,0.0,meteobridge,2013-05-05 01:47:00,
2013-05-04 20:49:00,59.7,48.7,29.92,West,275,0.0,0.0,67,0.00,,,0.00,0.0,meteobridge,2013-05-05 01:49:00,
2013-05-04 20:50:00,59.5,48.9,29.92,West,275,0.0,0.0,68,0.00,,,0.00,0.0,meteobridge,2013-05-05 01:50:00,
2013-05-04 20:51:00,59.5,49.3,29.92,West,275,0.0,0.0,69,0.00,,,0.00,0.0,meteobridge,2013-05-05 01:51:00,
2013-05-04 20:53:00,59.4,49.1,29.92,West,275,0.0,0.0,69,0.00,,,0.00,0.0,meteobridge,2013-05-05 01:53:00,
2013-05-04 20:55:00,59.4,49.1,29.92,West,275,0.0,0.0,69,0.00,,,0.00,0.0,meteobridge,2013-05-05 01:55:00,
2013-05-04 20:56:00,59.2,49.5,29.91,West,275,0.0,0.0,70,0.00,,,0.00,0.0,meteobridge,2013-05-05 01:56:00,
2013-05-04 20:58:00,59.0,49.3,29.92,West,275,0.0,0.0,70,0.00,,,0.00,0.0,meteobridge,2013-05-05 01:58:00,
2013-05-04 20:59:00,58.8,49.1,29.92,West,275,0.0,0.0,70,0.00,,,0.00,0.0,meteobridge,2013-05-05 01:59:00,
2013-05-04 21:00:00,58.8,49.5,29.91,West,275,0.0,0.0,71,0.00,,,0.00,0.0,meteobridge,2013-05-05 02:00:00,
2013-05-04 21:02:00,58.8,49.5,29.92,West,275,0.0,0.0,71,0.00,,,0.00,0.0,meteobridge,2013-05-05 02:02:00,
2013-05-04 21:04:00,58.6,49.6,29.92,West,275,0.0,0.0,72,0.00,,,0.00,0.0,meteobridge,2013-05-05 02:04:00,
2013-05-04 21:05:00,58.5,49.1,29.92,West,275,0.0,0.0,71,0.00,,,0.00,0.0,meteobridge,2013-05-05 02:05:00,
2013-05-04 21:06:00,58.5,49.1,29.92,West,275,0.0,0.0,71,0.00,,,0.00,0.0,meteobridge,2013-05-05 02:06:00,
2013-05-04 21:07:00,58.3,48.9,29.92,West,275,0.0,0.0,71,0.00,,,0.00,0.0,meteobridge,2013-05-05 02:07:00,
2013-05-04 21:09:00,58.3,49.3,29.92,West,275,0.0,0.0,72,0.00,,,0.00,0.0,meteobridge,2013-05-05 02:09:00,
2013-05-04 21:11:00,58.1,49.5,29.92,West,275,0.0,0.0,73,0.00,,,0.00,0.0,meteobridge,2013-05-05 02:11:00,
2013-05-04 21:12:00,58.1,49.5,29.92,West,275,0.0,0.0,73,0.00,,,0.00,0.0,meteobridge,2013-05-05 02:12:00,
2013-05-04 21:13:00,57.9,48.9,29.92,West,275,0.0,0.0,72,0.00,,,0.00,0.0,meteobridge,2013-05-05 02:13:00,
2013-05-04 21:14:00,57.9,48.9,29.92,West,275,0.0,0.0,72,0.00,,,0.00,0.0,meteobridge,2013-05-05 02:14:00,
2013-05-04 21:16:00,57.7,49.1,29.92,West,275,0.0,0.0,73,0.00,,,0.00,0.0,meteobridge,2013-05-05 02:16:00,
2013-05-04 21:17:00,57.7,49.5,29.92,West,275,0.0,0.0,74,0.00,,,0.00,0.0,meteobridge,2013-05-05 02:17:00,
2013-05-04 21:19:00,57.7,49.5,29.92,West,275,0.0,0.0,74,0.00,,,0.00,0.0,meteobridge,2013-05-05 02:19:00,
2013-05-04 21:20:00,57.6,49.6,29.92,West,275,0.0,0.0,75,0.00,,,0.00,0.0,meteobridge,2013-05-05 02:20:00,
2013-05-04 21:22:00,57.4,49.5,29.92,West,275,0.0,0.0,75,0.00,,,0.00,0.0,meteobridge,2013-05-05 02:22:00,
2013-05-04 21:23:00,57.4,49.5,29.92,West,275,0.0,0.0,75,0.00,,,0.00,0.0,meteobridge,2013-05-05 02:23:00,
2013-05-04 21:24:00,57.4,49.5,29.92,West,275,0.0,0.0,75,0.00,,,0.00,0.0,meteobridge,2013-05-05 02:24:00,
2013-05-04 21:25:00,57.2,49.3,29.92,West,275,0.0,0.0,75,0.00,,,0.00,0.0,meteobridge,2013-05-05 02:25:00,
2013-05-04 21:26:00,57.0,49.1,29.92,West,275,0.0,0.0,75,0.00,,,0.00,0.0,meteobridge,2013-05-05 02:26:00,
2013-05-04 21:28:00,57.0,49.1,29.92,West,275,0.0,0.0,75,0.00,,,0.00,0.0,meteobridge,2013-05-05 02:28:00,
2013-05-04 21:30:00,57.0,49.5,29.92,West,275,0.0,0.0,76,0.00,,,0.00,0.0,meteobridge,2013-05-05 02:30:00,
2013-05-04 21:31:00,57.0,49.5,29.92,West,275,0.0,0.0,76,0.00,,,0.00,0.0,meteobridge,2013-05-05 02:31:00,
2013-05-04 21:32:00,57.0,49.5,29.92,West,275,0.0,0.0,76,0.00,,,0.00,0.0,meteobridge,2013-05-05 02:32:00,
2013-05-04 21:35:00,56.8,49.6,29.93,West,275,0.0,0.0,77,0.00,,,0.00,0.0,meteobridge,2013-05-05 02:35:00,
2013-05-04 21:36:00,56.8,49.3,29.93,West,275,0.0,0.0,76,0.00,,,0.00,0.0,meteobridge,2013-05-05 02:36:00,
2013-05-04 21:37:00,56.7,49.1,29.93,West,275,0.0,0.0,76,0.00,,,0.00,0.0,meteobridge,2013-05-05 02:37:00,
2013-05-04 21:41:00,56.5,49.3,29.93,West,275,0.0,0.0,77,0.00,,,0.00,0.0,meteobridge,2013-05-05 02:41:00,
2013-05-04 21:42:00,56.5,49.3,29.93,West,275,0.0,0.0,77,0.00,,,0.00,0.0,meteobridge,2013-05-05 02:42:00,
2013-05-04 21:43:00,56.3,48.9,29.93,West,275,0.0,0.0,76,0.00,,,0.00,0.0,meteobridge,2013-05-05 02:43:00,
2013-05-04 21:47:00,56.1,48.9,29.93,West,275,0.0,0.0,77,0.00,,,0.00,0.0,meteobridge,2013-05-05 02:47:00,
2013-05-04 21:48:00,56.1,48.9,29.93,West,275,0.0,0.0,77,0.00,,,0.00,0.0,meteobridge,2013-05-05 02:48:00,
2013-05-04 21:49:00,56.1,48.9,29.93,West,275,0.0,0.0,77,0.00,,,0.00,0.0,meteobridge,2013-05-05 02:49:00,
2013-05-04 21:52:00,55.9,48.9,29.93,West,275,0.0,0.0,77,0.00,,,0.00,0.0,meteobridge,2013-05-05 02:52:00,
2013-05-04 21:53:00,55.8,48.7,29.93,West,275,0.0,0.0,77,0.00,,,0.00,0.0,meteobridge,2013-05-05 02:53:00,
2013-05-04 21:55:00,55.8,48.7,29.93,West,275,0.0,0.0,77,0.00,,,0.00,0.0,meteobridge,2013-05-05 02:55:00,
2013-05-04 21:56:00,55.8,48.7,29.93,West,275,0.0,0.0,77,0.00,,,0.00,0.0,meteobridge,2013-05-05 02:56:00,
2013-05-04 21:57:00,55.8,48.9,29.93,West,275,0.0,0.0,78,0.00,,,0.00,0.0,meteobridge,2013-05-05 02:57:00,
2013-05-04 21:58:00,55.8,48.9,29.94,West,275,0.0,0.0,78,0.00,,,0.00,0.0,meteobridge,2013-05-05 02:58:00,
2013-05-04 21:59:00,55.6,48.9,29.94,West,275,0.0,0.0,78,0.00,,,0.00,0.0,meteobridge,2013-05-05 02:59:00,
2013-05-04 22:01:00,55.6,48.6,29.93,West,275,0.0,0.0,77,0.00,,,0.00,0.0,meteobridge,2013-05-05 03:01:00,
2013-05-04 22:03:00,55.6,49.1,29.93,West,275,0.0,0.0,79,0.00,,,0.00,0.0,meteobridge,2013-05-05 03:03:00,
2013-05-04 22:04:00,55.6,49.1,29.94,West,275,0.0,0.0,79,0.00,,,0.00,0.0,meteobridge,2013-05-05 03:04:00,
2013-05-04 22:06:00,55.4,48.9,29.94,West,275,0.0,0.0,79,0.00,,,0.00,0.0,meteobridge,2013-05-05 03:06:00,
2013-05-04 22:07:00,55.2,48.7,29.94,West,275,0.0,0.0,79,0.00,,,0.00,0.0,meteobridge,2013-05-05 03:07:00,
2013-05-04 22:10:00,55.2,48.7,29.94,West,275,0.0,0.0,79,0.00,,,0.00,0.0,meteobridge,2013-05-05 03:10:00,
2013-05-04 22:11:00,55.0,48.4,29.94,West,275,0.0,0.0,78,0.00,,,0.00,0.0,meteobridge,2013-05-05 03:11:00,
2013-05-04 22:14:00,55.0,48.6,29.94,West,275,0.0,0.0,79,0.00,,,0.00,0.0,meteobridge,2013-05-05 03:14:00,
2013-05-04 22:15:00,55.0,48.6,29.94,West,275,0.0,0.0,79,0.00,,,0.00,0.0,meteobridge,2013-05-05 03:15:00,
2013-05-04 22:18:00,55.0,48.6,29.94,West,275,0.0,0.0,79,0.00,,,0.00,0.0,meteobridge,2013-05-05 03:18:00,
2013-05-04 22:19:00,54.9,48.6,29.94,West,275,0.0,0.0,79,0.00,,,0.00,0.0,meteobridge,2013-05-05 03:19:00,
2013-05-04 22:20:00,54.9,48.6,29.94,West,275,0.0,0.0,79,0.00,,,0.00,0.0,meteobridge,2013-05-05 03:20:00,
2013-05-04 22:21:00,54.9,48.6,29.94,West,275,0.0,0.0,79,0.00,,,0.00,0.0,meteobridge,2013-05-05 03:21:00,
2013-05-04 22:22:00,54.9,48.7,29.94,West,275,0.0,0.0,80,0.00,,,0.00,0.0,meteobridge,2013-05-05 03:22:00,
2013-05-04 22:25:00,54.7,48.6,29.94,West,275,0.0,0.0,80,0.00,,,0.00,0.0,meteobridge,2013-05-05 03:25:00,
2013-05-04 22:26:00,54.7,48.9,29.94,West,275,0.0,0.0,81,0.00,,,0.00,0.0,meteobridge,2013-05-05 03:26:00,
2013-05-04 22:27:00,54.7,48.9,29.94,West,275,0.0,0.0,81,0.00,,,0.00,0.0,meteobridge,2013-05-05 03:27:00,
2013-05-04 22:28:00,54.5,48.7,29.94,West,275,0.0,0.0,81,0.00,,,0.00,0.0,meteobridge,2013-05-05 03:28:00,
2013-05-04 22:32:00,54.3,48.6,29.95,West,275,0.0,0.0,81,0.00,,,0.00,0.0,meteobridge,2013-05-05 03:32:00,
2013-05-04 22:33:00,54.3,48.6,29.95,West,275,0.0,0.0,81,0.00,,,0.00,0.0,meteobridge,2013-05-05 03:33:00,
2013-05-04 22:34:00,54.1,48.4,29.95,West,275,0.0,0.0,81,0.00,,,0.00,0.0,meteobridge,2013-05-05 03:34:00,
2013-05-04 22:35:00,54.1,48.4,29.95,West,275,0.0,0.0,81,0.00,,,0.00,0.0,meteobridge,2013-05-05 03:35:00,
2013-05-04 22:37:00,54.1,48.7,29.95,West,275,0.0,0.0,82,0.00,,,0.00,0.0,meteobridge,2013-05-05 03:37:00,
2013-05-04 22:39:00,54.1,48.4,29.95,West,275,0.0,0.0,81,0.00,,,0.00,0.0,meteobridge,2013-05-05 03:39:00,
2013-05-04 22:40:00,54.0,48.2,29.95,West,275,0.0,0.0,81,0.00,,,0.00,0.0,meteobridge,2013-05-05 03:40:00,
2013-05-04 22:41:00,54.0,48.6,29.95,West,275,0.0,0.0,82,0.00,,,0.00,0.0,meteobridge,2013-05-05 03:41:00,
2013-05-04 22:42:00,54.0,48.6,29.95,West,275,0.0,0.0,82,0.00,,,0.00,0.0,meteobridge,2013-05-05 03:42:00,
2013-05-04 22:45:00,53.8,48.4,29.95,West,275,0.0,0.0,82,0.00,,,0.00,0.0,meteobridge,2013-05-05 03:45:00,
2013-05-04 22:46:00,53.8,48.4,29.95,West,275,0.0,0.0,82,0.00,,,0.00,0.0,meteobridge,2013-05-05 03:46:00,
2013-05-04 22:47:00,53.8,48.4,29.95,West,275,0.0,0.0,82,0.00,,,0.00,0.0,meteobridge,2013-05-05 03:47:00,
2013-05-04 22:49:00,53.8,48.4,29.95,West,275,0.0,0.0,82,0.00,,,0.00,0.0,meteobridge,2013-05-05 03:49:00,
2013-05-04 22:50:00,53.6,48.2,29.95,West,275,0.0,0.0,82,0.00,,,0.00,0.0,meteobridge,2013-05-05 03:50:00,
2013-05-04 22:52:00,53.6,48.2,29.95,West,275,0.0,0.0,82,0.00,,,0.00,0.0,meteobridge,2013-05-05 03:52:00,
2013-05-04 22:54:00,53.6,48.6,29.95,West,275,0.0,0.0,83,0.00,,,0.00,0.0,meteobridge,2013-05-05 03:54:00,
2013-05-04 22:55:00,53.4,48.4,29.95,West,275,0.0,0.0,83,0.00,,,0.00,0.0,meteobridge,2013-05-05 03:55:00,
2013-05-04 22:56:00,53.4,48.4,29.95,West,275,0.0,0.0,83,0.00,,,0.00,0.0,meteobridge,2013-05-05 03:56:00,
2013-05-04 22:57:00,53.4,48.0,29.95,West,275,0.0,0.0,82,0.00,,,0.00,0.0,meteobridge,2013-05-05 03:57:00,
2013-05-04 22:59:00,53.4,48.4,29.95,West,275,0.0,0.0,83,0.00,,,0.00,0.0,meteobridge,2013-05-05 03:59:00,
2013-05-04 23:01:00,53.4,48.0,29.95,West,275,0.0,0.0,82,0.00,,,0.00,0.0,meteobridge,2013-05-05 04:01:00,
2013-05-04 23:02:00,53.4,48.0,29.95,West,275,0.0,0.0,82,0.00,,,0.00,0.0,meteobridge,2013-05-05 04:02:00,
2013-05-04 23:03:00,53.2,48.2,29.95,West,275,0.0,0.0,83,0.00,,,0.00,0.0,meteobridge,2013-05-05 04:03:00,
2013-05-04 23:04:00,53.2,48.2,29.95,West,275,0.0,0.0,83,0.00,,,0.00,0.0,meteobridge,2013-05-05 04:04:00,
2013-05-04 23:06:00,53.2,47.8,29.96,West,275,0.0,0.0,82,0.00,,,0.00,0.0,meteobridge,2013-05-05 04:06:00,
2013-05-04 23:07:00,53.1,47.3,29.96,West,275,0.0,0.0,81,0.00,,,0.00,0.0,meteobridge,2013-05-05 04:07:00,
2013-05-04 23:08:00,53.1,47.3,29.96,West,275,0.0,0.0,81,0.00,,,0.00,0.0,meteobridge,2013-05-05 04:08:00,
2013-05-04 23:09:00,53.1,47.3,29.96,West,275,0.0,0.0,81,0.00,,,0.00,0.0,meteobridge,2013-05-05 04:09:00,
2013-05-04 23:11:00,53.1,47.3,29.96,West,275,0.0,0.0,81,0.00,,,0.00,0.0,meteobridge,2013-05-05 04:11:00,
2013-05-04 23:12:00,52.9,46.9,29.96,West,275,0.0,0.0,80,0.00,,,0.00,0.0,meteobridge,2013-05-05 04:12:00,
2013-05-04 23:13:00,52.9,46.9,29.96,West,275,0.0,0.0,80,0.00,,,0.00,0.0,meteobridge,2013-05-05 04:13:00,
2013-05-04 23:14:00,52.9,47.3,29.96,West,275,0.0,0.0,81,0.00,,,0.00,0.0,meteobridge,2013-05-05 04:14:00,
2013-05-04 23:16:00,52.7,46.8,29.96,West,275,0.0,0.0,80,0.00,,,0.00,0.0,meteobridge,2013-05-05 04:16:00,
2013-05-04 23:18:00,52.7,46.8,29.96,West,275,0.0,0.0,80,0.00,,,0.00,0.0,meteobridge,2013-05-05 04:18:00,
2013-05-04 23:19:00,52.7,46.8,29.96,West,275,0.0,0.0,80,0.00,,,0.00,0.0,meteobridge,2013-05-05 04:19:00,
2013-05-04 23:20:00,52.7,47.1,29.96,West,275,0.0,0.0,81,0.00,,,0.00,0.0,meteobridge,2013-05-05 04:20:00,
2013-05-04 23:22:00,52.5,46.9,29.96,West,275,0.0,0.0,81,0.00,,,0.00,0.0,meteobridge,2013-05-05 04:22:00,
2013-05-04 23:23:00,52.5,46.9,29.96,West,275,0.0,0.0,81,0.00,,,0.00,0.0,meteobridge,2013-05-05 04:23:00,
2013-05-04 23:25:00,52.5,46.9,29.96,West,275,0.0,0.0,81,0.00,,,0.00,0.0,meteobridge,2013-05-05 04:25:00,
2013-05-04 23:28:00,52.3,46.9,29.96,West,275,0.0,0.0,82,0.00,,,0.00,0.0,meteobridge,2013-05-05 04:28:00,
2013-05-04 23:29:00,52.2,46.8,29.96,West,275,0.0,0.0,82,0.00,,,0.00,0.0,meteobridge,2013-05-05 04:29:00,
2013-05-04 23:30:00,52.2,46.6,29.96,West,275,0.0,0.0,81,0.00,,,0.00,0.0,meteobridge,2013-05-05 04:30:00,
2013-05-04 23:34:00,52.0,46.6,29.96,West,275,0.0,0.0,82,0.00,,,0.00,0.0,meteobridge,2013-05-05 04:34:00,
2013-05-04 23:35:00,52.0,46.4,29.96,West,275,0.0,0.0,81,0.00,,,0.00,0.0,meteobridge,2013-05-05 04:35:00,
2013-05-04 23:39:00,51.8,46.2,29.96,West,275,0.0,0.0,81,0.00,,,0.00,0.0,meteobridge,2013-05-05 04:39:00,
2013-05-04 23:40:00,51.6,46.2,29.96,West,275,0.0,0.0,82,0.00,,,0.00,0.0,meteobridge,2013-05-05 04:40:00,
2013-05-04 23:41:00,51.6,46.0,29.96,West,275,0.0,0.0,81,0.00,,,0.00,0.0,meteobridge,2013-05-05 04:41:00,
2013-05-04 23:45:00,51.4,46.2,29.97,West,275,0.0,0.0,82,0.00,,,0.00,0.0,meteobridge,2013-05-05 04:45:00,
2013-05-04 23:46:00,51.3,46.0,29.97,West,275,0.0,0.0,82,0.00,,,0.00,0.0,meteobridge,2013-05-05 04:46:00,
2013-05-04 23:47:00,51.3,46.0,29.97,West,275,0.0,0.0,82,0.00,,,0.00,0.0,meteobridge,2013-05-05 04:47:00,
2013-05-04 23:51:00,50.9,45.9,29.97,West,275,0.0,0.0,83,0.00,,,0.00,0.0,meteobridge,2013-05-05 04:51:00,
2013-05-04 23:52:00,50.7,45.7,29.97,West,275,0.0,0.0,83,0.00,,,0.00,0.0,meteobridge,2013-05-05 04:52:00,
2013-05-04 23:56:00,50.5,45.5,29.98,West,275,0.0,0.0,83,0.00,,,0.00,0.0,meteobridge,2013-05-05 04:56:00,
2013-05-04 23:57:00,50.5,45.9,29.98,West,275,0.0,0.0,84,0.00,,,0.00,0.0,meteobridge,2013-05-05 04:57:00,
2013-05-04 23:59:00,50.5,45.9,29.98,West,275,0.0,0.0,84,0.00,,,0.00,0.0,meteobridge,2013-05-05 04:59:00,